Time,TemperatureF,DewpointF,PressureIn,WindDirection,WindDirectionDegrees,WindSpeedMPH,WindSpeedGustMPH,Humidity,HourlyPrecipIn,Conditions,Clouds,dailyrainin,SoftwareType,DateUTC
2013-03-10 00:04:00,47.1,35.1,30.32,East,87,0.0,0.0,63,0.00,SCT,,0.00,WeatherDisplay:10.37,2013-03-10 08:04:00,
2013-03-10 00:05:00,47.0,35.4,30.32,East,87,1.2,1.2,64,0.00,SCT,,0.00,WeatherDisplay:10.37,2013-03-10 08:05:00,
2013-03-10 00:09:00,46.9,35.0,30.32,East,87,0.0,0.0,63,0.00,SCT,,0.00,WeatherDisplay:10.37,2013-03-10 08:09:00,
2013-03-10 00:11:00,46.9,35.4,30.32,East,87,0.0,0.0,64,0.00,SCT,,0.00,WeatherDisplay:10.37,2013-03-10 08:11:00,
2013-03-10 00:15:00,46.7,35.2,30.32,East,87,0.0,0.0,64,0.00,SCT,,0.00,WeatherDisplay:10.37,2013-03-10 08:15:00,
2013-03-10 00:16:00,46.7,35.2,30.32,East,87,0.0,0.0,64,0.00,SCT,,0.00,WeatherDisplay:10.37,2013-03-10 08:16:00,
2013-03-10 00:17:00,46.7,35.2,30.32,East,87,0.0,0.0,64,0.00,SCT,,0.00,WeatherDisplay:10.37,2013-03-10 08:17:00,
2013-03-10 00:20:00,46.6,35.1,30.32,East,87,0.0,0.0,64,0.00,SCT,,0.00,WeatherDisplay:10.37,2013-03-10 08:20:00,
2013-03-10 00:22:00,46.7,35.2,30.33,East,87,0.0,0.0,64,0.00,SCT,,0.00,WeatherDisplay:10.37,2013-03-10 08:22:00,
2013-03-10 00:24:00,46.6,35.1,30.33,East,87,0.0,0.0,64,0.00,SCT,,0.00,WeatherDisplay:10.37,2013-03-10 08:24:00,
2013-03-10 00:25:00,46.6,35.1,30.33,East,87,0.0,0.0,64,0.00,SCT,,0.00,WeatherDisplay:10.37,2013-03-10 08:25:00,
2013-03-10 00:28:00,46.5,35.0,30.33,East,87,0.0,0.0,64,0.00,SCT,,0.00,WeatherDisplay:10.37,2013-03-10 08:28:00,
2013-03-10 00:30:00,46.5,35.0,30.33,East,87,0.0,0.0,64,0.00,SCT,,0.00,WeatherDisplay:10.37,2013-03-10 08:30:00,
2013-03-10 00:31:00,46.5,35.0,30.33,East,87,0.0,0.0,64,0.00,SCT,,0.00,WeatherDisplay:10.37,2013-03-10 08:31:00,
2013-03-10 00:33:00,46.4,35.3,30.33,East,87,0.0,0.0,65,0.00,SCT,,0.00,WeatherDisplay:10.37,2013-03-10 08:33:00,
2013-03-10 00:35:00,46.3,34.8,30.33,East,87,0.0,0.0,64,0.00,SCT,,0.00,WeatherDisplay:10.37,2013-03-10 08:35:00,
2013-03-10 00:36:00,46.3,34.8,30.33,East,87,0.0,0.0,64,0.00,SCT,,0.00,WeatherDisplay:10.37,2013-03-10 08:36:00,
2013-03-10 00:37:00,46.2,34.7,30.34,East,87,0.0,0.0,64,0.00,SCT,,0.00,WeatherDisplay:10.37,2013-03-10 08:37:00,
2013-03-10 00:39:00,46.2,35.1,30.33,East,87,0.0,0.0,65,0.00,SCT,,0.00,WeatherDisplay:10.37,2013-03-10 08:39:00,
2013-03-10 00:41:00,46.2,35.1,30.33,East,86,0.0,0.0,65,0.00,SCT,,0.00,WeatherDisplay:10.37,2013-03-10 08:41:00,
2013-03-10 00:45:00,46.1,35.4,30.33,East,87,0.0,0.0,66,0.00,SCT,,0.00,WeatherDisplay:10.37,2013-03-10 08:45:00,
2013-03-10 00:46:00,46.1,35.4,30.33,East,87,0.0,0.0,66,0.00,SCT,,0.00,WeatherDisplay:10.37,2013-03-10 08:46:00,
2013-03-10 00:50:00,45.9,35.2,30.33,East,87,0.0,0.0,66,0.00,SCT,,0.00,WeatherDisplay:10.37,2013-03-10 08:50:00,
2013-03-10 00:51:00,45.9,35.2,30.33,East,87,0.0,0.0,66,0.00,SCT,,0.00,WeatherDisplay:10.37,2013-03-10 08:51:00,
2013-03-10 00:55:00,45.7,35.0,30.33,East,87,0.0,0.0,66,0.00,SCT,,0.00,WeatherDisplay:10.37,2013-03-10 08:55:00,
2013-03-10 00:56:00,45.7,35.0,30.33,East,87,0.0,0.0,66,0.00,SCT,,0.00,WeatherDisplay:10.37,2013-03-10 08:56:00,
2013-03-10 01:00:00,45.6,34.9,30.32,East,87,0.0,0.0,66,0.00,SCT,,0.00,WeatherDisplay:10.37,2013-03-10 09:00:00,
2013-03-10 01:01:00,45.6,34.9,30.32,East,87,0.0,0.0,66,0.00,SCT,,0.00,WeatherDisplay:10.37,2013-03-10 09:01:00,
2013-03-10 01:02:00,45.7,35.0,30.32,East,87,0.0,0.0,66,0.00,SCT,,0.00,WeatherDisplay:10.37,2013-03-10 09:02:00,
2013-03-10 01:05:00,45.6,34.9,30.32,East,87,0.0,0.0,66,0.00,SCT,,0.00,WeatherDisplay:10.37,2013-03-10 09:05:00,
2013-03-10 01:06:00,45.6,34.9,30.32,East,87,0.0,0.0,66,0.00,SCT,,0.00,WeatherDisplay:10.37,2013-03-10 09:06:00,
2013-03-10 01:07:00,45.5,34.8,30.32,East,87,0.0,0.0,66,0.00,SCT,,0.00,WeatherDisplay:10.37,2013-03-10 09:07:00,
2013-03-10 01:10:00,45.4,34.7,30.33,East,87,0.0,0.0,66,0.00,SCT,,0.00,WeatherDisplay:10.37,2013-03-10 09:10:00,
2013-03-10 01:12:00,45.3,34.6,30.33,East,87,0.0,0.0,66,0.00,SCT,,0.00,WeatherDisplay:10.37,2013-03-10 09:12:00,
2013-03-10 01:13:00,45.4,34.7,30.33,East,87,0.0,0.0,66,0.00,SCT,,0.00,WeatherDisplay:10.37,2013-03-10 09:13:00,
2013-03-10 01:16:00,45.2,34.9,30.32,East,87,0.0,0.0,67,0.00,SCT,,0.00,WeatherDisplay:10.37,2013-03-10 09:16:00,
2013-03-10 01:17:00,45.2,34.9,30.33,East,86,0.0,0.0,67,0.00,SCT,,0.00,WeatherDisplay:10.37,2013-03-10 09:17:00,
2013-03-10 01:18:00,45.2,34.9,30.32,East,87,0.0,0.0,67,0.00,SCT,,0.00,WeatherDisplay:10.37,2013-03-10 09:18:00,
2013-03-10 01:19:00,45.2,34.9,30.32,East,87,0.0,0.0,67,0.00,SCT,,0.00,WeatherDisplay:10.37,2013-03-10 09:19:00,
2013-03-10 01:21:00,45.1,34.8,30.32,East,87,0.0,0.0,67,0.00,SCT,,0.00,WeatherDisplay:10.37,2013-03-10 09:21:00,
2013-03-10 01:22:00,45.1,34.8,30.32,East,87,0.0,0.0,67,0.00,SCT,,0.00,WeatherDisplay:10.37,2013-03-10 09:22:00,
2013-03-10 01:23:00,45.1,34.8,30.32,East,87,0.0,0.0,67,0.00,SCT,,0.00,WeatherDisplay:10.37,2013-03-10 09:23:00,
2013-03-10 01:24:00,45.1,34.8,30.32,East,87,0.0,0.0,67,0.00,SCT,,0.00,WeatherDisplay:10.37,2013-03-10 09:24:00,
2013-03-10 01:27:00,45.0,34.7,30.33,East,87,0.0,0.0,67,0.00,SCT,,0.00,WeatherDisplay:10.37,2013-03-10 09:27:00,
2013-03-10 01:28:00,45.0,34.7,30.33,East,87,0.0,0.0,67,0.00,SCT,,0.00,WeatherDisplay:10.37,2013-03-10 09:28:00,
2013-03-10 01:30:00,44.9,34.6,30.33,East,87,0.0,0.0,67,0.00,SCT,,0.00,WeatherDisplay:10.37,2013-03-10 09:30:00,
2013-03-10 01:32:00,44.8,34.5,30.33,East,87,0.0,0.0,67,0.00,SCT,,0.00,WeatherDisplay:10.37,2013-03-10 09:32:00,
2013-03-10 01:33:00,44.7,34.4,30.33,East,87,0.0,0.0,67,0.00,SCT,,0.00,WeatherDisplay:10.37,2013-03-10 09:33:00,
2013-03-10 01:34:00,44.7,34.8,30.33,East,87,0.0,0.0,68,0.00,SCT,,0.00,WeatherDisplay:10.37,2013-03-10 09:34:00,
2013-03-10 01:35:00,44.7,34.8,30.33,East,87,0.0,0.0,68,0.00,SCT,,0.00,WeatherDisplay:10.37,2013-03-10 09:35:00,
2013-03-10 01:38:00,44.7,34.4,30.33,East,87,0.0,0.0,67,0.00,SCT,,0.00,WeatherDisplay:10.37,2013-03-10 09:38:00,
2013-03-10 01:39:00,44.6,34.7,30.33,East,87,0.0,0.0,68,0.00,SCT,,0.00,WeatherDisplay:10.37,2013-03-10 09:39:00,
2013-03-10 01:40:00,44.7,34.8,30.33,East,87,0.0,0.0,68,0.00,SCT,,0.00,WeatherDisplay:10.37,2013-03-10 09:40:00,
2013-03-10 01:43:00,44.6,34.3,30.33,East,87,1.2,0.0,67,0.00,SCT,,0.00,WeatherDisplay:10.37,2013-03-10 09:43:00,
2013-03-10 01:44:00,44.5,34.6,30.33,East,87,0.0,0.0,68,0.00,SCT,,0.00,WeatherDisplay:10.37,2013-03-10 09:44:00,
2013-03-10 01:45:00,44.5,34.2,30.33,East,87,0.0,0.0,67,0.00,SCT,,0.00,WeatherDisplay:10.37,2013-03-10 09:45:00,
2013-03-10 01:48:00,44.4,34.5,30.33,East,87,0.0,0.0,68,0.00,SCT,,0.00,WeatherDisplay:10.37,2013-03-10 09:48:00,
2013-03-10 01:50:00,44.4,34.1,30.33,East,87,0.0,0.0,67,0.00,SCT,,0.00,WeatherDisplay:10.37,2013-03-10 09:50:00,
2013-03-10 01:51:00,44.3,34.4,30.33,East,87,0.0,0.0,68,0.00,SCT,,0.00,WeatherDisplay:10.37,2013-03-10 09:51:00,
2013-03-10 01:54:00,44.2,34.3,30.33,East,87,0.0,0.0,68,0.00,SCT,,0.00,WeatherDisplay:10.37,2013-03-10 09:54:00,
2013-03-10 01:55:00,44.2,34.3,30.33,East,87,0.0,0.0,68,0.00,SCT,,0.00,WeatherDisplay:10.37,2013-03-10 09:55:00,
2013-03-10 01:56:00,44.2,34.3,30.33,East,87,0.0,0.0,68,0.00,SCT,,0.00,WeatherDisplay:10.37,2013-03-10 09:56:00,
2013-03-10 01:57:00,44.2,34.3,30.33,East,87,0.0,0.0,68,0.00,SCT,,0.00,WeatherDisplay:10.37,2013-03-10 09:57:00,
2013-03-10 01:59:00,44.2,34.3,30.33,East,87,0.0,0.0,68,0.00,SCT,,0.00,WeatherDisplay:10.37,2013-03-10 09:59:00,
2013-03-10 03:01:00,44.1,34.2,30.33,East,87,0.0,0.0,68,0.00,SCT,,0.00,WeatherDisplay:10.37,2013-03-10 10:01:00,
2013-03-10 03:02:00,44.1,34.2,30.33,East,87,0.0,0.0,68,0.00,SCT,,0.00,WeatherDisplay:10.37,2013-03-10 10:02:00,
2013-03-10 03:04:00,44.0,34.1,30.32,East,87,0.0,0.0,68,0.00,SCT,,0.00,WeatherDisplay:10.37,2013-03-10 10:04:00,
2013-03-10 03:06:00,43.9,34.0,30.33,East,87,0.0,0.0,68,0.00,SCT,,0.00,WeatherDisplay:10.37,2013-03-10 10:06:00,
2013-03-10 03:07:00,43.9,34.0,30.33,East,87,0.0,0.0,68,0.00,SCT,,0.00,WeatherDisplay:10.37,2013-03-10 10:07:00,
2013-03-10 03:10:00,43.9,34.4,30.32,East,87,0.0,0.0,69,0.00,SCT,,0.00,WeatherDisplay:10.37,2013-03-10 10:10:00,
2013-03-10 03:11:00,43.8,33.9,30.32,East,87,0.0,0.0,68,0.00,SCT,,0.00,WeatherDisplay:10.37,2013-03-10 10:11:00,
2013-03-10 03:12:00,43.8,33.9,30.32,East,87,0.0,0.0,68,0.00,SCT,,0.00,WeatherDisplay:10.37,2013-03-10 10:12:00,
2013-03-10 03:13:00,43.8,33.9,30.32,East,87,0.0,0.0,68,0.00,SCT,,0.00,WeatherDisplay:10.37,2013-03-10 10:13:00,
2013-03-10 03:16:00,43.8,34.3,30.32,East,87,0.0,0.0,69,0.00,SCT,,0.00,WeatherDisplay:10.37,2013-03-10 10:16:00,
2013-03-10 03:17:00,43.8,34.3,30.32,East,87,0.0,0.0,69,0.00,SCT,,0.00,WeatherDisplay:10.37,2013-03-10 10:17:00,
2013-03-10 03:18:00,43.8,34.3,30.32,East,87,0.0,0.0,69,0.00,SCT,,0.00,WeatherDisplay:10.37,2013-03-10 10:18:00,
2013-03-10 03:21:00,43.8,34.3,30.32,East,87,0.0,0.0,69,0.00,SCT,,0.00,WeatherDisplay:10.37,2013-03-10 10:21:00,
2013-03-10 03:23:00,43.8,34.3,30.32,East,87,0.0,0.0,69,0.00,SCT,,0.00,WeatherDisplay:10.37,2013-03-10 10:23:00,
2013-03-10 03:25:00,43.7,34.2,30.32,East,87,0.0,0.0,69,0.00,SCT,,0.00,WeatherDisplay:10.37,2013-03-10 10:25:00,
2013-03-10 03:27:00,43.7,34.2,30.32,East,87,0.0,0.0,69,0.00,SCT,,0.00,WeatherDisplay:10.37,2013-03-10 10:27:00,
2013-03-10 03:28:00,43.7,34.2,30.32,East,87,0.0,0.0,69,0.00,SCT,,0.00,WeatherDisplay:10.37,2013-03-10 10:28:00,
2013-03-10 03:30:00,43.7,34.2,30.33,East,87,0.0,0.0,69,0.00,SCT,,0.00,WeatherDisplay:10.37,2013-03-10 10:30:00,
2013-03-10 03:32:00,43.6,34.1,30.33,East,87,0.0,0.0,69,0.00,SCT,,0.00,WeatherDisplay:10.37,2013-03-10 10:32:00,
2013-03-10 03:33:00,43.6,34.1,30.33,East,87,0.0,0.0,69,0.00,SCT,,0.00,WeatherDisplay:10.37,2013-03-10 10:33:00,
2013-03-10 03:35:00,43.5,34.0,30.33,East,87,0.0,0.0,69,0.00,SCT,,0.00,WeatherDisplay:10.37,2013-03-10 10:35:00,
2013-03-10 03:36:00,43.5,34.0,30.33,East,87,0.0,0.0,69,0.00,SCT,,0.00,WeatherDisplay:10.37,2013-03-10 10:36:00,
2013-03-10 03:39:00,43.4,33.9,30.33,East,87,0.0,0.0,69,0.00,SCT,,0.00,WeatherDisplay:10.37,2013-03-10 10:39:00,
2013-03-10 03:40:00,43.3,33.8,30.33,East,87,0.0,0.0,69,0.00,SCT,,0.00,WeatherDisplay:10.37,2013-03-10 10:40:00,
2013-03-10 03:41:00,43.3,34.2,30.32,East,87,0.0,0.0,70,0.00,SCT,,0.00,WeatherDisplay:10.37,2013-03-10 10:41:00,
2013-03-10 03:44:00,43.3,33.8,30.32,East,87,0.0,0.0,69,0.00,SCT,,0.00,WeatherDisplay:10.37,2013-03-10 10:44:00,
2013-03-10 03:46:00,43.3,34.2,30.32,East,87,0.0,0.0,70,0.00,SCT,,0.00,WeatherDisplay:10.37,2013-03-10 10:46:00,
2013-03-10 03:49:00,43.3,33.8,30.32,East,87,0.0,0.0,69,0.00,SCT,,0.00,WeatherDisplay:10.37,2013-03-10 10:49:00,
2013-03-10 03:51:00,43.3,34.2,30.32,East,87,0.0,0.0,70,0.00,SCT,,0.00,WeatherDisplay:10.37,2013-03-10 10:51:00,
2013-03-10 03:53:00,43.3,33.8,30.32,East,87,0.0,0.0,69,0.00,SCT,,0.00,WeatherDisplay:10.37,2013-03-10 10:53:00,
2013-03-10 03:54:00,43.2,33.7,30.32,East,87,0.0,0.0,69,0.00,SCT,,0.00,WeatherDisplay:10.37,2013-03-10 10:54:00,
2013-03-10 03:56:00,43.2,34.1,30.32,East,87,0.0,0.0,70,0.00,SCT,,0.00,WeatherDisplay:10.37,2013-03-10 10:56:00,
2013-03-10 03:58:00,43.1,34.3,30.32,East,87,0.0,0.0,71,0.00,SCT,,0.00,WeatherDisplay:10.37,2013-03-10 10:58:00,
2013-03-10 03:59:00,43.1,34.0,30.32,East,87,0.0,0.0,70,0.00,SCT,,0.00,WeatherDisplay:10.37,2013-03-10 10:59:00,
2013-03-10 04:00:00,43.1,34.3,30.32,East,87,0.0,0.0,71,0.00,SCT,,0.00,WeatherDisplay:10.37,2013-03-10 11:00:00,
2013-03-10 04:01:00,43.1,34.0,30.32,East,87,0.0,0.0,70,0.00,SCT,,0.00,WeatherDisplay:10.37,2013-03-10 11:01:00,
2013-03-10 04:04:00,43.0,33.9,30.32,East,87,0.0,0.0,70,0.00,SCT,,0.00,WeatherDisplay:10.37,2013-03-10 11:04:00,
2013-03-10 04:05:00,43.0,33.9,30.32,East,87,0.0,0.0,70,0.00,SCT,,0.00,WeatherDisplay:10.37,2013-03-10 11:05:00,
2013-03-10 04:06:00,43.0,33.9,30.32,East,87,0.0,0.0,70,0.00,SCT,,0.00,WeatherDisplay:10.37,2013-03-10 11:06:00,
2013-03-10 04:07:00,43.0,33.9,30.32,East,87,0.0,0.0,70,0.00,SCT,,0.00,WeatherDisplay:10.37,2013-03-10 11:07:00,
2013-03-10 04:10:00,43.0,34.2,30.32,East,87,0.0,0.0,71,0.00,SCT,,0.00,WeatherDisplay:10.37,2013-03-10 11:10:00,
2013-03-10 04:11:00,43.0,33.9,30.32,East,87,0.0,0.0,70,0.00,SCT,,0.00,WeatherDisplay:10.37,2013-03-10 11:11:00,
2013-03-10 04:12:00,42.9,33.8,30.32,East,87,0.0,0.0,70,0.00,SCT,,0.00,WeatherDisplay:10.37,2013-03-10 11:12:00,
2013-03-10 04:15:00,42.9,33.8,30.32,East,87,0.0,0.0,70,0.00,SCT,,0.00,WeatherDisplay:10.37,2013-03-10 11:15:00,
2013-03-10 04:16:00,42.9,34.1,30.32,East,87,0.0,0.0,71,0.00,SCT,,0.00,WeatherDisplay:10.37,2013-03-10 11:16:00,
2013-03-10 04:17:00,42.9,33.8,30.33,East,87,0.0,0.0,70,0.00,SCT,,0.00,WeatherDisplay:10.37,2013-03-10 11:17:00,
2013-03-10 04:20:00,42.9,33.8,30.32,East,87,0.0,0.0,70,0.00,SCT,,0.00,WeatherDisplay:10.37,2013-03-10 11:20:00,
2013-03-10 04:21:00,42.8,34.0,30.32,East,87,0.0,0.0,71,0.00,SCT,,0.00,WeatherDisplay:10.37,2013-03-10 11:21:00,
2013-03-10 04:22:00,42.8,33.7,30.32,East,87,0.0,0.0,70,0.00,SCT,,0.00,WeatherDisplay:10.37,2013-03-10 11:22:00,
2013-03-10 04:25:00,42.6,33.9,30.32,East,87,0.0,0.0,71,0.00,SCT,,0.00,WeatherDisplay:10.37,2013-03-10 11:25:00,
2013-03-10 04:26:00,42.6,33.5,30.32,East,87,0.0,0.0,70,0.00,SCT,,0.00,WeatherDisplay:10.37,2013-03-10 11:26:00,
2013-03-10 04:27:00,42.6,33.9,30.32,East,87,0.0,0.0,71,0.00,SCT,,0.00,WeatherDisplay:10.37,2013-03-10 11:27:00,
2013-03-10 04:28:00,42.6,33.9,30.32,East,87,0.0,0.0,71,0.00,SCT,,0.00,WeatherDisplay:10.37,2013-03-10 11:28:00,
2013-03-10 04:30:00,42.6,33.9,30.32,East,87,0.0,0.0,71,0.00,SCT,,0.00,WeatherDisplay:10.37,2013-03-10 11:30:00,
2013-03-10 04:32:00,42.6,33.9,30.32,East,87,0.0,0.0,71,0.00,SCT,,0.00,WeatherDisplay:10.37,2013-03-10 11:32:00,
2013-03-10 04:33:00,42.5,33.8,30.32,East,87,0.0,0.0,71,0.00,SCT,,0.00,WeatherDisplay:10.37,2013-03-10 11:33:00,
2013-03-10 04:35:00,42.5,33.8,30.32,East,87,0.0,0.0,71,0.00,SCT,,0.00,WeatherDisplay:10.37,2013-03-10 11:35:00,
2013-03-10 04:37:00,42.4,33.7,30.32,East,87,0.0,0.0,71,0.00,SCT,,0.00,WeatherDisplay:10.37,2013-03-10 11:37:00,
2013-03-10 04:38:00,42.4,33.7,30.32,East,87,0.0,0.0,71,0.00,SCT,,0.00,WeatherDisplay:10.37,2013-03-10 11:38:00,
2013-03-10 04:39:00,42.4,33.7,30.32,East,87,0.0,0.0,71,0.00,SCT,,0.00,WeatherDisplay:10.37,2013-03-10 11:39:00,
2013-03-10 04:41:00,42.3,33.9,30.32,East,87,0.0,0.0,72,0.00,SCT,,0.00,WeatherDisplay:10.37,2013-03-10 11:41:00,
2013-03-10 04:42:00,42.3,33.9,30.32,East,87,0.0,0.0,72,0.00,SCT,,0.00,WeatherDisplay:10.37,2013-03-10 11:42:00,
2013-03-10 04:43:00,42.3,33.9,30.32,East,87,0.0,0.0,72,0.00,SCT,,0.00,WeatherDisplay:10.37,2013-03-10 11:43:00,
2013-03-10 04:44:00,42.3,33.9,30.32,East,87,0.0,0.0,72,0.00,SCT,,0.00,WeatherDisplay:10.37,2013-03-10 11:44:00,
2013-03-10 04:47:00,42.3,33.9,30.32,East,87,0.0,0.0,72,0.00,SCT,,0.00,WeatherDisplay:10.37,2013-03-10 11:47:00,
2013-03-10 04:48:00,42.3,33.9,30.32,East,87,0.0,0.0,72,0.00,SCT,,0.00,WeatherDisplay:10.37,2013-03-10 11:48:00,
2013-03-10 04:50:00,42.3,33.9,30.32,East,87,0.0,0.0,72,0.00,SCT,,0.00,WeatherDisplay:10.37,2013-03-10 11:50:00,
2013-03-10 04:53:00,42.1,33.4,30.32,East,87,0.0,0.0,71,0.00,SCT,,0.00,WeatherDisplay:10.37,2013-03-10 11:53:00,
2013-03-10 04:54:00,42.2,33.8,30.32,East,87,0.0,0.0,72,0.00,SCT,,0.00,WeatherDisplay:10.37,2013-03-10 11:54:00,
2013-03-10 04:55:00,42.1,33.7,30.32,East,87,0.0,0.0,72,0.00,SCT,,0.00,WeatherDisplay:10.37,2013-03-10 11:55:00,
2013-03-10 04:58:00,42.0,33.6,30.32,East,87,0.0,0.0,72,0.00,SCT,,0.00,WeatherDisplay:10.37,2013-03-10 11:58:00,
2013-03-10 04:59:00,42.0,33.6,30.32,East,87,0.0,0.0,72,0.00,SCT,,0.00,WeatherDisplay:10.37,2013-03-10 11:59:00,
2013-03-10 05:00:00,42.0,33.6,30.32,East,87,0.0,0.0,72,0.00,SCT,,0.00,WeatherDisplay:10.37,2013-03-10 12:00:00,
2013-03-10 05:04:00,41.9,33.9,30.32,East,87,0.0,0.0,73,0.00,SCT,,0.00,WeatherDisplay:10.37,2013-03-10 12:04:00,
2013-03-10 05:05:00,42.0,33.9,30.32,East,87,0.0,1.0,73,0.00,SCT,,0.00,WeatherDisplay:10.37,2013-03-10 12:05:00,
2013-03-10 05:06:00,42.0,34.0,30.32,East,87,0.0,0.0,73,0.00,SCT,,0.00,WeatherDisplay:10.37,2013-03-10 12:06:00,
2013-03-10 05:10:00,42.0,34.0,30.32,East,87,0.0,0.0,73,0.00,SCT,,0.00,WeatherDisplay:10.37,2013-03-10 12:10:00,
2013-03-10 05:11:00,42.0,33.6,30.32,East,87,0.0,0.0,72,0.00,SCT,,0.00,WeatherDisplay:10.37,2013-03-10 12:11:00,
2013-03-10 05:15:00,42.0,33.6,30.32,East,87,0.0,0.0,72,0.00,SCT,,0.00,WeatherDisplay:10.37,2013-03-10 12:15:00,
2013-03-10 05:16:00,41.9,33.5,30.32,East,87,0.0,0.0,72,0.00,SCT,,0.00,WeatherDisplay:10.37,2013-03-10 12:16:00,
2013-03-10 05:20:00,41.8,33.8,30.32,East,87,0.0,0.1,73,0.00,SCT,,0.00,WeatherDisplay:10.37,2013-03-10 12:20:00,
2013-03-10 05:21:00,41.8,33.8,30.32,East,87,0.0,0.1,73,0.00,SCT,,0.00,WeatherDisplay:10.37,2013-03-10 12:21:00,
2013-03-10 05:25:00,41.6,33.2,30.33,East,87,0.0,0.0,72,0.00,SCT,,0.00,WeatherDisplay:10.37,2013-03-10 12:25:00,
2013-03-10 05:26:00,41.6,33.2,30.33,East,87,0.0,0.0,72,0.00,SCT,,0.00,WeatherDisplay:10.37,2013-03-10 12:26:00,
2013-03-10 05:28:00,41.6,33.6,30.33,East,87,0.0,0.0,73,0.00,SCT,,0.00,WeatherDisplay:10.37,2013-03-10 12:28:00,
2013-03-10 05:31:00,41.5,33.1,30.33,East,87,0.0,0.0,72,0.00,SCT,,0.00,WeatherDisplay:10.37,2013-03-10 12:31:00,
2013-03-10 05:32:00,41.5,33.5,30.33,East,87,0.0,0.0,73,0.00,SCT,,0.00,WeatherDisplay:10.37,2013-03-10 12:32:00,
2013-03-10 05:33:00,41.5,33.5,30.33,East,87,0.0,0.0,73,0.00,SCT,,0.00,WeatherDisplay:10.37,2013-03-10 12:33:00,
2013-03-10 05:36:00,41.4,33.4,30.33,East,87,0.0,0.0,73,0.00,SCT,,0.00,WeatherDisplay:10.37,2013-03-10 12:36:00,
2013-03-10 05:38:00,41.4,33.4,30.33,East,87,0.0,0.0,73,0.00,SCT,,0.00,WeatherDisplay:10.37,2013-03-10 12:38:00,
2013-03-10 05:39:00,41.3,33.3,30.32,East,87,0.0,0.0,73,0.00,SCT,,0.00,WeatherDisplay:10.37,2013-03-10 12:39:00,
2013-03-10 05:41:00,41.3,33.3,30.33,East,87,0.0,0.0,73,0.00,SCT,,0.00,WeatherDisplay:10.37,2013-03-10 12:41:00,
2013-03-10 05:44:00,41.3,33.3,30.33,East,87,0.0,0.0,73,0.00,SCT,,0.00,WeatherDisplay:10.37,2013-03-10 12:44:00,
2013-03-10 05:46:00,41.3,33.3,30.33,East,87,0.0,0.0,73,0.00,SCT,,0.00,WeatherDisplay:10.37,2013-03-10 12:46:00,
2013-03-10 05:49:00,41.3,33.3,30.33,East,87,1.2,1.2,73,0.00,SCT,,0.00,WeatherDisplay:10.37,2013-03-10 12:49:00,
2013-03-10 05:52:00,41.2,33.5,30.33,East,87,1.2,0.0,74,0.00,SCT,,0.00,WeatherDisplay:10.37,2013-03-10 12:52:00,
2013-03-10 05:54:00,41.2,33.5,30.33,East,87,1.2,0.0,74,0.00,SCT,,0.00,WeatherDisplay:10.37,2013-03-10 12:54:00,
2013-03-10 05:55:00,41.1,33.4,30.33,East,87,1.2,1.2,74,0.00,SCT,,0.00,WeatherDisplay:10.37,2013-03-10 12:55:00,
2013-03-10 05:57:00,41.1,33.4,30.33,East,87,1.2,0.0,74,0.00,SCT,,0.00,WeatherDisplay:10.37,2013-03-10 12:57:00,
2013-03-10 05:59:00,41.1,33.4,30.33,East,87,0.0,0.0,74,0.00,SCT,,0.00,WeatherDisplay:10.37,2013-03-10 12:59:00,
2013-03-10 06:00:00,41.1,33.4,30.33,East,87,0.0,0.0,74,0.00,SCT,,0.00,WeatherDisplay:10.37,2013-03-10 13:00:00,
2013-03-10 06:02:00,41.1,33.1,30.33,East,87,0.0,0.0,73,0.00,SCT,,0.00,WeatherDisplay:10.37,2013-03-10 13:02:00,
2013-03-10 06:05:00,41.1,33.1,30.33,East,87,0.0,0.0,73,0.00,SCT,,0.00,WeatherDisplay:10.37,2013-03-10 13:05:00,
2013-03-10 06:06:00,41.1,33.4,30.33,East,87,0.0,0.0,74,0.00,SCT,,0.00,WeatherDisplay:10.37,2013-03-10 13:06:00,
2013-03-10 06:08:00,41.0,33.0,30.33,East,87,0.0,0.0,73,0.00,SCT,,0.00,WeatherDisplay:10.37,2013-03-10 13:08:00,
2013-03-10 06:10:00,41.0,33.0,30.33,East,87,0.0,0.0,73,0.00,SCT,,0.00,WeatherDisplay:10.37,2013-03-10 13:10:00,
2013-03-10 06:11:00,41.0,33.0,30.33,East,87,0.0,0.0,73,0.00,SCT,,0.00,WeatherDisplay:10.37,2013-03-10 13:11:00,
2013-03-10 06:14:00,40.9,32.9,30.33,East,87,0.0,0.0,73,0.00,SCT,,0.00,WeatherDisplay:10.37,2013-03-10 13:14:00,
2013-03-10 06:15:00,40.9,33.2,30.33,East,87,0.0,0.0,74,0.00,SCT,,0.00,WeatherDisplay:10.37,2013-03-10 13:15:00,
2013-03-10 06:16:00,40.8,32.8,30.33,East,87,0.0,0.0,73,0.00,SCT,,0.00,WeatherDisplay:10.37,2013-03-10 13:16:00,
2013-03-10 06:20:00,40.7,32.7,30.33,East,87,0.0,0.0,73,0.00,SCT,,0.00,WeatherDisplay:10.37,2013-03-10 13:20:00,
2013-03-10 06:21:00,40.7,32.7,30.33,East,87,0.0,0.0,73,0.00,SCT,,0.00,WeatherDisplay:10.37,2013-03-10 13:21:00,
2013-03-10 06:22:00,40.6,32.6,30.33,East,87,0.0,0.0,73,0.00,SCT,,0.00,WeatherDisplay:10.37,2013-03-10 13:22:00,
2013-03-10 06:25:00,40.6,32.6,30.33,East,87,0.0,0.0,73,0.00,SCT,,0.00,WeatherDisplay:10.37,2013-03-10 13:25:00,
2013-03-10 06:26:00,40.6,33.0,30.33,East,87,0.0,0.0,74,0.00,SCT,,0.00,WeatherDisplay:10.37,2013-03-10 13:26:00,
2013-03-10 06:27:00,40.5,32.9,30.33,East,87,0.0,0.0,74,0.00,SCT,,0.00,WeatherDisplay:10.37,2013-03-10 13:27:00,
2013-03-10 06:28:00,40.6,33.0,30.33,East,87,0.0,0.0,74,0.00,SCT,,0.00,WeatherDisplay:10.37,2013-03-10 13:28:00,
2013-03-10 06:30:00,40.5,32.5,30.33,East,87,0.0,1.0,73,0.00,SCT,,0.00,WeatherDisplay:10.37,2013-03-10 13:30:00,
2013-03-10 06:31:00,40.5,32.5,30.33,East,87,0.0,0.0,73,0.00,SCT,,0.00,WeatherDisplay:10.37,2013-03-10 13:31:00,
2013-03-10 06:32:00,40.4,32.4,30.33,East,87,0.0,0.0,73,0.00,SCT,,0.00,WeatherDisplay:10.37,2013-03-10 13:32:00,
2013-03-10 06:33:00,40.4,32.4,30.33,East,87,0.0,0.0,73,0.00,SCT,,0.00,WeatherDisplay:10.37,2013-03-10 13:33:00,
2013-03-10 06:35:00,40.4,32.4,30.33,East,87,0.0,0.0,73,0.00,SCT,,0.00,WeatherDisplay:10.37,2013-03-10 13:35:00,
2013-03-10 06:36:00,40.3,32.3,30.33,East,87,0.0,0.0,73,0.00,SCT,,0.00,WeatherDisplay:10.37,2013-03-10 13:36:00,
2013-03-10 06:37:00,40.3,32.7,30.33,East,87,0.0,0.0,74,0.00,SCT,,0.00,WeatherDisplay:10.37,2013-03-10 13:37:00,
2013-03-10 06:38:00,40.3,32.7,30.33,East,87,0.0,0.0,74,0.00,SCT,,0.00,WeatherDisplay:10.37,2013-03-10 13:38:00,
2013-03-10 06:40:00,40.3,32.3,30.33,East,87,0.0,0.0,73,0.00,SCT,,0.00,WeatherDisplay:10.37,2013-03-10 13:40:00,
2013-03-10 06:41:00,40.3,32.3,30.33,East,87,0.0,0.0,73,0.00,SCT,,0.00,WeatherDisplay:10.37,2013-03-10 13:41:00,
2013-03-10 06:42:00,40.3,32.7,30.33,East,87,0.0,0.0,74,0.00,SCT,,0.00,WeatherDisplay:10.37,2013-03-10 13:42:00,
2013-03-10 06:43:00,40.3,32.3,30.33,East,87,0.0,0.0,73,0.00,SCT,,0.00,WeatherDisplay:10.37,2013-03-10 13:43:00,
2013-03-10 06:46:00,40.3,32.7,30.33,East,87,0.0,0.0,74,0.00,SCT,,0.00,WeatherDisplay:10.37,2013-03-10 13:46:00,
2013-03-10 06:48:00,40.3,32.7,30.33,East,87,0.0,0.0,74,0.00,SCT,,0.00,WeatherDisplay:10.37,2013-03-10 13:48:00,
2013-03-10 06:51:00,40.3,32.7,30.33,East,87,0.0,0.0,74,0.00,SCT,,0.00,WeatherDisplay:10.37,2013-03-10 13:51:00,
2013-03-10 06:52:00,40.2,32.2,30.33,East,87,0.0,0.0,73,0.00,SCT,,0.00,WeatherDisplay:10.37,2013-03-10 13:52:00,
2013-03-10 06:53:00,40.2,32.2,30.33,East,87,0.0,0.0,73,0.00,SCT,,0.00,WeatherDisplay:10.37,2013-03-10 13:53:00,
2013-03-10 06:54:00,40.2,32.2,30.33,East,87,0.0,0.0,73,0.00,SCT,,0.00,WeatherDisplay:10.37,2013-03-10 13:54:00,
2013-03-10 06:56:00,40.1,32.5,30.33,East,87,0.0,0.0,74,0.00,SCT,,0.00,WeatherDisplay:10.37,2013-03-10 13:56:00,
2013-03-10 06:59:00,40.0,32.4,30.33,East,87,0.0,0.0,74,0.00,SCT,,0.00,WeatherDisplay:10.37,2013-03-10 13:59:00,
2013-03-10 07:03:00,40.0,32.0,30.33,East,87,0.0,0.0,73,0.00,SCT,,0.00,WeatherDisplay:10.37,2013-03-10 14:03:00,
2013-03-10 07:04:00,39.9,31.9,30.33,East,87,0.0,0.0,73,0.00,SCT,,0.00,WeatherDisplay:10.37,2013-03-10 14:04:00,
2013-03-10 07:05:00,39.9,31.9,30.34,East,87,0.0,0.0,73,0.00,SCT,,0.00,WeatherDisplay:10.37,2013-03-10 14:05:00,
2013-03-10 07:09:00,39.9,32.3,30.34,East,87,0.0,0.0,74,0.00,SCT,,0.00,WeatherDisplay:10.37,2013-03-10 14:09:00,
2013-03-10 07:10:00,39.8,32.2,30.34,East,87,0.0,0.0,74,0.00,SCT,,0.00,WeatherDisplay:10.37,2013-03-10 14:10:00,
2013-03-10 07:14:00,39.8,32.5,30.34,East,87,0.0,0.0,75,0.00,SCT,,0.00,WeatherDisplay:10.37,2013-03-10 14:14:00,
2013-03-10 07:15:00,39.8,32.5,30.34,East,87,0.0,0.0,75,0.00,SCT,,0.00,WeatherDisplay:10.37,2013-03-10 14:15:00,
2013-03-10 07:16:00,39.8,32.2,30.34,East,87,0.0,0.0,74,0.00,SCT,,0.00,WeatherDisplay:10.37,2013-03-10 14:16:00,
2013-03-10 07:19:00,39.7,32.1,30.34,East,87,0.0,0.0,74,0.00,SCT,,0.00,WeatherDisplay:10.37,2013-03-10 14:19:00,
2013-03-10 07:20:00,39.8,32.2,30.34,East,87,0.0,0.0,74,0.00,SCT,,0.00,WeatherDisplay:10.37,2013-03-10 14:20:00,
2013-03-10 07:21:00,39.7,32.1,30.34,East,87,0.0,0.0,74,0.00,SCT,,0.00,WeatherDisplay:10.37,2013-03-10 14:21:00,
2013-03-10 07:22:00,39.7,32.1,30.34,East,87,0.0,0.0,74,0.00,SCT,,0.00,WeatherDisplay:10.37,2013-03-10 14:22:00,
2013-03-10 07:25:00,39.7,32.1,30.34,East,87,0.0,0.0,74,0.00,SCT,,0.00,WeatherDisplay:10.37,2013-03-10 14:25:00,
2013-03-10 07:26:00,39.6,32.0,30.34,East,87,0.0,0.0,74,0.00,SCT,,0.00,WeatherDisplay:10.37,2013-03-10 14:26:00,
2013-03-10 07:27:00,39.6,32.0,30.34,East,87,0.0,0.0,74,0.00,SCT,,0.00,WeatherDisplay:10.37,2013-03-10 14:27:00,
2013-03-10 07:30:00,39.6,32.0,30.34,East,87,0.0,0.0,74,0.00,SCT,,0.00,WeatherDisplay:10.37,2013-03-10 14:30:00,
2013-03-10 07:32:00,39.6,32.3,30.34,East,87,0.0,0.0,75,0.00,SCT,,0.00,WeatherDisplay:10.37,2013-03-10 14:32:00,
2013-03-10 07:35:00,39.6,32.3,30.34,East,87,0.0,0.0,75,0.00,SCT,,0.00,WeatherDisplay:10.37,2013-03-10 14:35:00,
2013-03-10 07:36:00,39.6,32.3,30.34,East,87,0.0,0.0,75,0.00,SCT,,0.00,WeatherDisplay:10.37,2013-03-10 14:36:00,
2013-03-10 07:37:00,39.6,32.3,30.34,East,87,0.0,0.0,75,0.00,SCT,,0.00,WeatherDisplay:10.37,2013-03-10 14:37:00,
2013-03-10 07:40:00,39.7,32.4,30.34,East,87,0.0,0.0,75,0.00,SCT,,0.00,WeatherDisplay:10.37,2013-03-10 14:40:00,
2013-03-10 07:41:00,39.7,32.4,30.34,East,87,0.0,0.0,75,0.00,SCT,,0.00,WeatherDisplay:10.37,2013-03-10 14:41:00,
2013-03-10 07:42:00,39.7,32.1,30.34,East,87,0.0,0.0,74,0.00,SCT,,0.00,WeatherDisplay:10.37,2013-03-10 14:42:00,
2013-03-10 07:43:00,39.7,32.4,30.34,East,87,0.0,0.0,75,0.00,SCT,,0.00,WeatherDisplay:10.37,2013-03-10 14:43:00,
2013-03-10 07:45:00,39.7,32.1,30.34,East,87,0.0,0.0,74,0.00,SCT,,0.00,WeatherDisplay:10.37,2013-03-10 14:45:00,
2013-03-10 07:46:00,39.7,32.1,30.34,East,87,0.0,0.0,74,0.00,SCT,,0.00,WeatherDisplay:10.37,2013-03-10 14:46:00,
2013-03-10 07:49:00,39.7,32.4,30.34,East,87,0.0,0.0,75,0.00,SCT,,0.00,WeatherDisplay:10.37,2013-03-10 14:49:00,
2013-03-10 07:50:00,39.7,32.4,30.34,East,87,0.0,0.0,75,0.00,SCT,,0.00,WeatherDisplay:10.37,2013-03-10 14:50:00,
2013-03-10 07:51:00,39.7,32.1,30.34,East,87,0.0,0.0,74,0.00,SCT,,0.00,WeatherDisplay:10.37,2013-03-10 14:51:00,
2013-03-10 07:56:00,39.7,32.4,30.34,East,87,0.0,0.0,75,0.00,SCT,,0.00,WeatherDisplay:10.37,2013-03-10 14:56:00,
2013-03-10 07:57:00,39.7,32.4,30.34,East,87,0.0,0.0,75,0.00,SCT,,0.00,WeatherDisplay:10.37,2013-03-10 14:57:00,
2013-03-10 07:59:00,39.7,32.4,30.34,East,87,0.0,0.0,75,0.00,SCT,,0.00,WeatherDisplay:10.37,2013-03-10 14:59:00,
2013-03-10 08:01:00,39.7,32.4,30.34,East,87,0.0,0.0,75,0.00,SCT,,0.00,WeatherDisplay:10.37,2013-03-10 15:01:00,
2013-03-10 08:02:00,39.7,32.4,30.35,East,87,0.0,0.0,75,0.00,SCT,,0.00,WeatherDisplay:10.37,2013-03-10 15:02:00,
2013-03-10 08:05:00,39.7,32.8,30.34,East,87,0.0,0.0,76,0.00,SCT,,0.00,WeatherDisplay:10.37,2013-03-10 15:05:00,
2013-03-10 08:06:00,39.8,32.5,30.35,East,87,0.0,0.0,75,0.00,SCT,,0.00,WeatherDisplay:10.37,2013-03-10 15:06:00,
2013-03-10 08:07:00,39.8,32.5,30.35,East,87,0.0,0.0,75,0.00,SCT,,0.00,WeatherDisplay:10.37,2013-03-10 15:07:00,
2013-03-10 08:11:00,40.0,33.0,30.35,East,87,0.0,0.0,76,0.00,SCT,,0.00,WeatherDisplay:10.37,2013-03-10 15:11:00,
2013-03-10 08:12:00,40.1,33.5,30.35,East,87,0.0,0.0,77,0.00,SCT,,0.00,WeatherDisplay:10.37,2013-03-10 15:12:00,
2013-03-10 08:16:00,40.6,34.0,30.35,East,87,1.0,1.0,77,0.00,SCT,,0.00,WeatherDisplay:10.37,2013-03-10 15:16:00,
2013-03-10 08:18:00,40.9,33.9,30.35,East,87,1.2,0.0,76,0.00,SCT,,0.00,WeatherDisplay:10.37,2013-03-10 15:18:00,
2013-03-10 08:19:00,41.3,34.3,30.35,East,87,1.2,1.2,76,0.00,SCT,,0.00,WeatherDisplay:10.37,2013-03-10 15:19:00,
2013-03-10 08:21:00,41.5,34.2,30.35,East,87,1.2,0.0,75,0.00,SCT,,0.00,WeatherDisplay:10.37,2013-03-10 15:21:00,
2013-03-10 08:23:00,41.9,34.2,30.35,East,87,2.3,2.3,74,0.00,SCT,,0.00,WeatherDisplay:10.37,2013-03-10 15:23:00,
2013-03-10 08:24:00,42.1,34.7,30.35,East,87,0.0,0.0,75,0.00,SCT,,0.00,WeatherDisplay:10.37,2013-03-10 15:24:00,
2013-03-10 08:26:00,42.6,34.9,30.35,East,87,0.0,0.0,74,0.00,SCT,,0.00,WeatherDisplay:10.37,2013-03-10 15:26:00,
2013-03-10 08:28:00,43.1,35.4,30.36,East,87,0.0,0.0,74,0.00,SCT,,0.00,WeatherDisplay:10.37,2013-03-10 15:28:00,
2013-03-10 08:29:00,43.2,35.1,30.35,East,87,0.0,0.0,73,0.00,SCT,,0.00,WeatherDisplay:10.37,2013-03-10 15:29:00,
2013-03-10 08:33:00,44.1,35.3,30.36,East,87,0.0,0.0,71,0.00,SCT,,0.00,WeatherDisplay:10.37,2013-03-10 15:33:00,
2013-03-10 08:35:00,44.3,35.5,30.36,East,87,0.0,0.0,71,0.00,SCT,,0.00,WeatherDisplay:10.37,2013-03-10 15:35:00,
2013-03-10 08:40:00,44.9,35.7,30.36,East,87,0.0,0.0,70,0.00,SCT,,0.00,WeatherDisplay:10.37,2013-03-10 15:40:00,
2013-03-10 08:45:00,45.6,35.6,30.36,East,87,0.0,0.0,68,0.00,SCT,,0.00,WeatherDisplay:10.37,2013-03-10 15:45:00,
2013-03-10 08:47:00,45.8,35.5,30.35,East,87,1.2,1.2,67,0.00,SCT,,0.00,WeatherDisplay:10.37,2013-03-10 15:47:00,
2013-03-10 08:50:00,46.2,35.8,30.36,East,87,1.2,0.0,67,0.00,SCT,,0.00,WeatherDisplay:10.37,2013-03-10 15:50:00,
2013-03-10 08:52:00,46.5,35.7,30.36,East,87,0.0,0.0,66,0.00,SCT,,0.00,WeatherDisplay:10.37,2013-03-10 15:52:00,
2013-03-10 08:55:00,47.0,36.6,30.35,East,89,1.2,1.2,67,0.00,SCT,,0.00,WeatherDisplay:10.37,2013-03-10 15:55:00,
2013-03-10 08:57:00,47.3,36.9,30.36,East,89,2.3,0.0,67,0.00,SCT,,0.00,WeatherDisplay:10.37,2013-03-10 15:57:00,
2013-03-10 09:00:00,47.8,37.0,30.36,East,89,0.0,0.1,66,0.00,SCT,,0.00,WeatherDisplay:10.37,2013-03-10 16:00:00,
2013-03-10 09:02:00,48.1,36.9,30.35,East,89,0.0,0.0,65,0.00,SCT,,0.00,WeatherDisplay:10.37,2013-03-10 16:02:00,
2013-03-10 09:05:00,48.5,36.9,30.36,East,89,0.0,0.0,64,0.00,SCT,,0.00,WeatherDisplay:10.37,2013-03-10 16:05:00,
2013-03-10 09:06:00,48.6,36.6,30.36,South,184,0.0,0.0,63,0.00,SCT,,0.00,WeatherDisplay:10.37,2013-03-10 16:06:00,
2013-03-10 09:07:00,48.7,36.7,30.36,South,188,0.0,0.0,63,0.00,SCT,,0.00,WeatherDisplay:10.37,2013-03-10 16:07:00,
2013-03-10 09:08:00,48.8,36.8,30.36,South,188,0.0,0.0,63,0.00,SCT,,0.00,WeatherDisplay:10.37,2013-03-10 16:08:00,
2013-03-10 09:10:00,49.1,37.0,30.35,South,188,0.0,0.0,63,0.00,SCT,,0.00,WeatherDisplay:10.37,2013-03-10 16:10:00,
2013-03-10 09:11:00,49.2,36.7,30.35,South,188,0.0,0.0,62,0.00,SCT,,0.00,WeatherDisplay:10.37,2013-03-10 16:11:00,
2013-03-10 09:13:00,49.4,36.1,30.36,South,188,0.0,0.0,60,0.00,SCT,,0.00,WeatherDisplay:10.37,2013-03-10 16:13:00,
2013-03-10 09:15:00,49.6,36.3,30.36,South,188,0.0,0.0,60,0.00,SCT,,0.00,WeatherDisplay:10.37,2013-03-10 16:15:00,
2013-03-10 09:16:00,49.8,36.5,30.36,South,188,0.0,0.0,60,0.00,SCT,,0.00,WeatherDisplay:10.37,2013-03-10 16:16:00,
2013-03-10 09:18:00,50.0,36.2,30.36,South,188,0.0,0.0,59,0.00,SCT,,0.00,WeatherDisplay:10.37,2013-03-10 16:18:00,
2013-03-10 09:20:00,50.3,36.1,30.35,South,188,0.0,0.0,58,0.00,SCT,,0.00,WeatherDisplay:10.37,2013-03-10 16:20:00,
2013-03-10 09:21:00,50.4,36.2,30.35,South,188,2.3,2.3,58,0.00,SCT,,0.00,WeatherDisplay:10.37,2013-03-10 16:21:00,
2013-03-10 09:22:00,50.5,35.8,30.35,South,188,2.3,2.3,57,0.00,SCT,,0.00,WeatherDisplay:10.37,2013-03-10 16:22:00,
2013-03-10 09:23:00,50.7,36.0,30.36,South,188,0.0,0.0,57,0.00,SCT,,0.00,WeatherDisplay:10.37,2013-03-10 16:23:00,
2013-03-10 09:25:00,50.9,36.2,30.36,South,188,1.2,0.0,57,0.00,SCT,,0.00,WeatherDisplay:10.37,2013-03-10 16:25:00,
2013-03-10 09:26:00,51.1,35.9,30.36,South,188,0.0,0.0,56,0.00,SCT,,0.00,WeatherDisplay:10.37,2013-03-10 16:26:00,
2013-03-10 09:27:00,51.3,36.6,30.36,South,188,0.0,0.0,57,0.00,SCT,,0.00,WeatherDisplay:10.37,2013-03-10 16:27:00,
2013-03-10 09:30:00,51.5,35.8,30.36,WSW,239,1.0,3.0,55,0.00,SCT,,0.00,WeatherDisplay:10.37,2013-03-10 16:30:00,
2013-03-10 09:31:00,51.7,35.6,30.36,North,350,1.2,1.2,54,0.00,SCT,,0.00,WeatherDisplay:10.37,2013-03-10 16:31:00,
2013-03-10 09:34:00,51.9,36.2,30.35,North,349,0.0,0.0,55,0.00,SCT,,0.00,WeatherDisplay:10.37,2013-03-10 16:34:00,
2013-03-10 09:35:00,51.9,36.2,30.35,NNW,327,0.0,1.0,55,0.00,SCT,,0.00,WeatherDisplay:10.37,2013-03-10 16:35:00,
2013-03-10 09:37:00,52.2,35.6,30.35,NNW,329,1.0,0.0,53,0.00,SCT,,0.00,WeatherDisplay:10.37,2013-03-10 16:37:00,
2013-03-10 09:40:00,52.5,34.9,30.35,NNW,334,0.0,2.0,51,0.00,SCT,,0.00,WeatherDisplay:10.37,2013-03-10 16:40:00,
2013-03-10 09:43:00,53.2,33.5,30.35,NW,307,1.2,1.2,47,0.00,SCT,,0.00,WeatherDisplay:10.37,2013-03-10 16:43:00,
2013-03-10 09:45:00,53.4,33.1,30.35,SW,229,3.5,3.5,46,0.00,SCT,,0.00,WeatherDisplay:10.37,2013-03-10 16:45:00,
2013-03-10 09:49:00,54.3,29.8,30.35,SSW,193,2.3,2.3,39,0.00,SCT,,0.00,WeatherDisplay:10.37,2013-03-10 16:49:00,
2013-03-10 09:50:00,54.4,29.9,30.35,SSW,212,3.5,3.5,39,0.00,SCT,,0.00,WeatherDisplay:10.37,2013-03-10 16:50:00,
2013-03-10 09:51:00,54.5,30.6,30.35,SSW,196,4.0,4.0,40,0.00,SCT,,0.00,WeatherDisplay:10.37,2013-03-10 16:51:00,
2013-03-10 09:55:00,54.9,30.4,30.35,SSW,203,3.5,3.5,39,0.00,SCT,,0.00,WeatherDisplay:10.37,2013-03-10 16:55:00,
2013-03-10 09:56:00,54.9,30.4,30.35,SSW,203,3.5,3.5,39,0.00,SCT,,0.00,WeatherDisplay:10.37,2013-03-10 16:56:00,
2013-03-10 09:57:00,55.0,30.5,30.35,SSW,207,2.3,2.3,39,0.00,SCT,,0.00,WeatherDisplay:10.37,2013-03-10 16:57:00,
2013-03-10 10:00:00,55.3,30.1,30.35,SSW,209,6.9,6.9,38,0.00,SCT,,0.00,WeatherDisplay:10.37,2013-03-10 17:00:00,
2013-03-10 10:01:00,55.4,30.8,30.36,SSW,207,6.9,6.9,39,0.00,SCT,,0.00,WeatherDisplay:10.37,2013-03-10 17:01:00,
2013-03-10 10:02:00,55.5,29.6,30.36,South,190,6.9,6.9,37,0.00,SCT,,0.00,WeatherDisplay:10.37,2013-03-10 17:02:00,
2013-03-10 10:05:00,55.6,31.0,30.36,South,190,5.8,5.8,39,0.00,SCT,,0.00,WeatherDisplay:10.37,2013-03-10 17:05:00,
2013-03-10 10:06:00,55.6,30.4,30.36,South,173,5.8,5.8,38,0.00,SCT,,0.00,WeatherDisplay:10.37,2013-03-10 17:06:00,
2013-03-10 10:08:00,55.7,29.8,30.36,South,190,4.6,4.6,37,0.00,SCT,,0.00,WeatherDisplay:10.37,2013-03-10 17:08:00,
2013-03-10 10:10:00,55.9,28.6,30.36,SSW,212,4.6,4.6,35,0.00,SCT,,0.00,WeatherDisplay:10.37,2013-03-10 17:10:00,
2013-03-10 10:11:00,55.9,28.6,30.36,SSW,198,4.6,4.6,35,0.00,SCT,,0.00,WeatherDisplay:10.37,2013-03-10 17:11:00,
2013-03-10 10:13:00,56.0,30.7,30.35,SSW,200,3.5,3.5,38,0.00,SCT,,0.00,WeatherDisplay:10.37,2013-03-10 17:13:00,
2013-03-10 10:15:00,56.2,30.9,30.36,SSW,213,3.5,3.5,38,0.00,SCT,,0.00,WeatherDisplay:10.37,2013-03-10 17:15:00,
2013-03-10 10:16:00,56.3,30.3,30.36,SSW,193,3.5,3.5,37,0.00,SCT,,0.00,WeatherDisplay:10.37,2013-03-10 17:16:00,
2013-03-10 10:18:00,56.4,31.1,30.36,SSW,195,4.6,4.6,38,0.00,SCT,,0.00,WeatherDisplay:10.37,2013-03-10 17:18:00,
2013-03-10 10:19:00,56.5,29.1,30.35,WSW,258,2.3,2.3,35,0.00,SCT,,0.00,WeatherDisplay:10.37,2013-03-10 17:19:00,
2013-03-10 10:21:00,56.6,29.9,30.35,SW,219,3.0,3.0,36,0.00,SCT,,0.00,WeatherDisplay:10.37,2013-03-10 17:21:00,
2013-03-10 10:23:00,56.7,29.3,30.35,SSW,198,8.1,8.1,35,0.00,SCT,,0.00,WeatherDisplay:10.37,2013-03-10 17:23:00,
2013-03-10 10:24:00,56.8,30.1,30.35,SSW,196,2.3,2.3,36,0.00,SCT,,0.00,WeatherDisplay:10.37,2013-03-10 17:24:00,
2013-03-10 10:26:00,56.8,28.0,30.35,WSW,244,5.8,5.8,33,0.00,SCT,,0.00,WeatherDisplay:10.37,2013-03-10 17:26:00,
2013-03-10 10:28:00,56.9,29.5,30.35,SSW,203,3.5,3.5,35,0.00,SCT,,0.00,WeatherDisplay:10.37,2013-03-10 17:28:00,
2013-03-10 10:29:00,57.1,29.7,30.35,WSW,245,6.0,6.0,35,0.00,SCT,,0.00,WeatherDisplay:10.37,2013-03-10 17:29:00,
2013-03-10 10:31:00,57.3,29.1,30.35,WNW,299,4.6,4.6,34,0.00,SCT,,0.00,WeatherDisplay:10.37,2013-03-10 17:31:00,
2013-03-10 10:33:00,57.4,29.2,30.35,WSW,240,6.9,6.9,34,0.00,SCT,,0.00,WeatherDisplay:10.37,2013-03-10 17:33:00,
2013-03-10 10:34:00,57.5,30.0,30.35,SSW,210,3.5,3.5,35,0.00,SCT,,0.00,WeatherDisplay:10.37,2013-03-10 17:34:00,
2013-03-10 10:35:00,57.6,30.1,30.35,SW,228,3.5,3.5,35,0.00,SCT,,0.00,WeatherDisplay:10.37,2013-03-10 17:35:00,
2013-03-10 10:37:00,57.7,28.0,30.35,SW,236,3.0,3.0,32,0.00,SCT,,0.00,WeatherDisplay:10.37,2013-03-10 17:37:00,
2013-03-10 10:40:00,58.0,29.8,30.34,SSW,197,6.9,6.9,34,0.00,SCT,,0.00,WeatherDisplay:10.37,2013-03-10 17:40:00,
2013-03-10 10:43:00,58.4,28.6,30.35,WSW,250,3.5,3.5,32,0.00,SCT,,0.00,WeatherDisplay:10.37,2013-03-10 17:43:00,
2013-03-10 10:45:00,58.5,27.9,30.35,NW,314,3.5,3.5,31,0.00,SCT,,0.00,WeatherDisplay:10.37,2013-03-10 17:45:00,
2013-03-10 10:46:00,58.6,26.4,30.35,SSW,200,3.5,3.5,29,0.00,SCT,,0.00,WeatherDisplay:10.37,2013-03-10 17:46:00,
2013-03-10 10:49:00,58.9,29.1,30.34,West,263,2.3,2.3,32,0.00,SCT,,0.00,WeatherDisplay:10.37,2013-03-10 17:49:00,
2013-03-10 10:50:00,58.9,27.5,30.34,West,263,2.3,2.3,30,0.00,SCT,,0.00,WeatherDisplay:10.37,2013-03-10 17:50:00,
2013-03-10 10:51:00,59.1,30.0,30.35,West,261,0.0,0.0,33,0.00,SCT,,0.00,WeatherDisplay:10.37,2013-03-10 17:51:00,
2013-03-10 10:55:00,59.3,29.4,30.34,SSW,198,3.5,3.5,32,0.00,SCT,,0.00,WeatherDisplay:10.37,2013-03-10 17:55:00,
2013-03-10 10:56:00,59.4,28.7,30.35,West,262,4.6,4.6,31,0.00,SCT,,0.00,WeatherDisplay:10.37,2013-03-10 17:56:00,
2013-03-10 10:57:00,59.5,28.0,30.34,SSW,202,5.8,5.8,30,0.00,SCT,,0.00,WeatherDisplay:10.37,2013-03-10 17:57:00,
2013-03-10 11:00:00,59.7,28.2,30.35,WSW,256,8.1,8.1,30,0.00,SCT,,0.00,WeatherDisplay:10.37,2013-03-10 18:00:00,
2013-03-10 11:02:00,59.6,29.7,30.35,South,176,8.1,8.1,32,0.00,SCT,,0.00,WeatherDisplay:10.37,2013-03-10 18:02:00,
2013-03-10 11:03:00,59.7,29.8,30.35,South,179,4.6,4.6,32,0.00,SCT,,0.00,WeatherDisplay:10.37,2013-03-10 18:03:00,
2013-03-10 11:05:00,59.9,28.4,30.35,SSW,202,3.5,3.5,30,0.00,SCT,,0.00,WeatherDisplay:10.37,2013-03-10 18:05:00,
2013-03-10 11:07:00,60.1,27.7,30.35,SSW,206,4.6,4.6,29,0.00,SCT,,0.00,WeatherDisplay:10.37,2013-03-10 18:07:00,
2013-03-10 11:09:00,60.1,28.5,30.34,SSW,194,4.6,4.6,30,0.00,SCT,,0.00,WeatherDisplay:10.37,2013-03-10 18:09:00,
2013-03-10 11:10:00,60.1,28.5,30.35,SW,233,3.5,3.5,30,0.00,SCT,,0.00,WeatherDisplay:10.37,2013-03-10 18:10:00,
2013-03-10 11:12:00,60.4,28.8,30.34,SW,233,3.5,3.5,30,0.00,SCT,,0.00,WeatherDisplay:10.37,2013-03-10 18:12:00,
2013-03-10 11:14:00,60.6,27.3,30.35,South,177,2.3,2.3,28,0.00,SCT,,0.00,WeatherDisplay:10.37,2013-03-10 18:14:00,
2013-03-10 11:16:00,60.8,29.1,30.35,WSW,252,3.0,3.0,30,0.00,SCT,,0.00,WeatherDisplay:10.37,2013-03-10 18:16:00,
2013-03-10 11:18:00,61.0,28.5,30.35,SSW,208,1.2,1.2,29,0.00,SCT,,0.00,WeatherDisplay:10.37,2013-03-10 18:18:00,
2013-03-10 11:20:00,61.2,28.7,30.34,SSW,209,2.3,2.3,29,0.00,SCT,,0.00,WeatherDisplay:10.37,2013-03-10 18:20:00,
2013-03-10 11:21:00,61.2,27.8,30.35,SSW,197,4.6,4.6,28,0.00,SCT,,0.00,WeatherDisplay:10.37,2013-03-10 18:21:00,
2013-03-10 11:25:00,61.1,28.6,30.34,SSW,209,1.0,5.0,29,0.00,SCT,,0.00,WeatherDisplay:10.37,2013-03-10 18:25:00,
2013-03-10 11:26:00,61.1,28.6,30.34,WSW,237,3.0,3.0,29,0.00,SCT,,0.00,WeatherDisplay:10.37,2013-03-10 18:26:00,
2013-03-10 11:30:00,61.3,27.9,30.34,SSW,210,1.0,7.0,28,0.00,SCT,,0.00,WeatherDisplay:10.37,2013-03-10 18:30:00,
2013-03-10 11:31:00,61.3,28.7,30.34,WSW,239,7.0,7.0,29,0.00,SCT,,0.00,WeatherDisplay:10.37,2013-03-10 18:31:00,
2013-03-10 11:36:00,61.2,27.8,30.34,SSW,206,3.5,3.5,28,0.00,SCT,,0.00,WeatherDisplay:10.37,2013-03-10 18:36:00,
2013-03-10 11:37:00,61.3,28.7,30.34,WSW,245,3.5,3.5,29,0.00,SCT,,0.00,WeatherDisplay:10.37,2013-03-10 18:37:00,
2013-03-10 11:41:00,61.5,28.1,30.34,SSW,198,3.0,3.0,28,0.00,SCT,,0.00,WeatherDisplay:10.37,2013-03-10 18:41:00,
2013-03-10 11:42:00,61.5,28.9,30.34,SSW,198,3.0,3.0,29,0.00,SCT,,0.00,WeatherDisplay:10.37,2013-03-10 18:42:00,
2013-03-10 11:46:00,62.1,29.4,30.34,SSW,202,4.6,4.6,29,0.00,SCT,,0.00,WeatherDisplay:10.37,2013-03-10 18:46:00,
2013-03-10 11:47:00,62.2,30.4,30.34,SW,215,4.6,4.6,30,0.00,SCT,,0.00,WeatherDisplay:10.37,2013-03-10 18:47:00,
2013-03-10 11:51:00,62.4,29.7,30.34,South,190,5.8,5.8,29,0.00,SCT,,0.00,WeatherDisplay:10.37,2013-03-10 18:51:00,
2013-03-10 11:52:00,62.5,28.9,30.34,SW,225,3.5,3.5,28,0.00,SCT,,0.00,WeatherDisplay:10.37,2013-03-10 18:52:00,
2013-03-10 11:53:00,62.5,28.9,30.34,SSW,204,4.0,4.0,28,0.00,SCT,,0.00,WeatherDisplay:10.37,2013-03-10 18:53:00,
2013-03-10 11:54:00,62.5,28.9,30.34,WSW,246,4.6,4.6,28,0.00,SCT,,0.00,WeatherDisplay:10.37,2013-03-10 18:54:00,
2013-03-10 11:56:00,62.2,27.8,30.34,WSW,244,8.1,8.1,27,0.00,SCT,,0.00,WeatherDisplay:10.37,2013-03-10 18:56:00,
2013-03-10 11:57:00,62.1,27.7,30.34,WSW,247,5.8,5.8,27,0.00,SCT,,0.00,WeatherDisplay:10.37,2013-03-10 18:57:00,
2013-03-10 11:59:00,61.8,27.4,30.34,South,185,4.6,4.6,27,0.00,SCT,,0.00,WeatherDisplay:10.37,2013-03-10 18:59:00,
2013-03-10 12:01:00,61.7,27.3,30.35,SW,233,3.5,3.5,27,0.00,SCT,,0.00,WeatherDisplay:10.37,2013-03-10 19:01:00,
2013-03-10 12:03:00,61.6,27.3,30.35,WSW,244,6.0,6.0,27,0.00,SCT,,0.00,WeatherDisplay:10.37,2013-03-10 19:03:00,
2013-03-10 12:04:00,61.6,28.1,30.35,SW,235,6.0,6.0,28,0.00,SCT,,0.00,WeatherDisplay:10.37,2013-03-10 19:04:00,
2013-03-10 12:05:00,61.5,28.1,30.34,SW,218,2.0,6.0,28,0.00,SCT,,0.00,WeatherDisplay:10.37,2013-03-10 19:05:00,
2013-03-10 12:06:00,61.7,28.2,30.35,SSW,210,3.5,3.5,28,0.00,SCT,,0.00,WeatherDisplay:10.37,2013-03-10 19:06:00,
2013-03-10 12:08:00,61.8,28.3,30.35,SW,214,4.6,4.6,28,0.00,SCT,,0.00,WeatherDisplay:10.37,2013-03-10 19:08:00,
2013-03-10 12:09:00,61.9,28.4,30.34,SSW,212,2.3,2.3,28,0.00,SCT,,0.00,WeatherDisplay:10.37,2013-03-10 19:09:00,
2013-03-10 12:11:00,62.2,27.8,30.34,WSW,237,8.1,8.1,27,0.00,SCT,,0.00,WeatherDisplay:10.37,2013-03-10 19:11:00,
2013-03-10 12:12:00,62.3,27.9,30.34,SW,230,5.8,5.8,27,0.00,SCT,,0.00,WeatherDisplay:10.37,2013-03-10 19:12:00,
2013-03-10 12:15:00,62.6,28.1,30.34,WSW,257,9.2,9.2,27,0.00,SCT,,0.00,WeatherDisplay:10.37,2013-03-10 19:15:00,
2013-03-10 12:16:00,62.7,27.3,30.34,SW,225,3.5,3.5,26,0.00,SCT,,0.00,WeatherDisplay:10.37,2013-03-10 19:16:00,
2013-03-10 12:18:00,62.9,28.4,30.34,WSW,250,3.5,3.5,27,0.00,SCT,,0.00,WeatherDisplay:10.37,2013-03-10 19:18:00,
2013-03-10 12:20:00,63.0,28.5,30.34,WSW,246,3.5,3.5,27,0.00,SCT,,0.00,WeatherDisplay:10.37,2013-03-10 19:20:00,
2013-03-10 12:21:00,63.1,28.5,30.34,SSW,201,1.2,1.2,27,0.00,SCT,,0.00,WeatherDisplay:10.37,2013-03-10 19:21:00,
2013-03-10 12:25:00,63.3,28.7,30.34,WSW,240,5.8,5.8,27,0.00,SCT,,0.00,WeatherDisplay:10.37,2013-03-10 19:25:00,
2013-03-10 12:27:00,63.4,28.8,30.34,WSW,246,6.9,6.9,27,0.00,SCT,,0.00,WeatherDisplay:10.37,2013-03-10 19:27:00,
2013-03-10 12:30:00,63.6,29.0,30.33,SW,222,0.0,7.0,27,0.00,SCT,,0.00,WeatherDisplay:10.37,2013-03-10 19:30:00,
2013-03-10 12:32:00,64.0,28.4,30.33,SSW,200,1.2,1.2,26,0.00,SCT,,0.00,WeatherDisplay:10.37,2013-03-10 19:32:00,
2013-03-10 12:35:00,64.3,28.6,30.34,SW,220,0.0,5.0,26,0.00,SCT,,0.00,WeatherDisplay:10.37,2013-03-10 19:35:00,
2013-03-10 12:36:00,64.4,29.7,30.34,SW,221,4.6,4.6,27,0.00,SCT,,0.00,WeatherDisplay:10.37,2013-03-10 19:36:00,
2013-03-10 12:37:00,64.4,29.7,30.34,SW,221,4.6,4.6,27,0.00,SCT,,0.00,WeatherDisplay:10.37,2013-03-10 19:37:00,
2013-03-10 12:40:00,64.7,28.0,30.34,SW,214,3.5,3.5,25,0.00,SCT,,0.00,WeatherDisplay:10.37,2013-03-10 19:40:00,
2013-03-10 12:42:00,64.7,29.0,30.33,SSW,204,3.5,3.5,26,0.00,SCT,,0.00,WeatherDisplay:10.37,2013-03-10 19:42:00,
2013-03-10 12:43:00,64.8,28.1,30.33,WSW,238,3.5,3.5,25,0.00,SCT,,0.00,WeatherDisplay:10.37,2013-03-10 19:43:00,
2013-03-10 12:45:00,64.8,28.1,30.33,WSW,244,2.3,2.3,25,0.00,SCT,,0.00,WeatherDisplay:10.37,2013-03-10 19:45:00,
2013-03-10 12:46:00,64.9,27.2,30.33,ESE,103,1.2,1.2,24,0.00,SCT,,0.00,WeatherDisplay:10.37,2013-03-10 19:46:00,
2013-03-10 12:48:00,65.0,27.3,30.33,SSW,208,3.5,3.5,24,0.00,SCT,,0.00,WeatherDisplay:10.37,2013-03-10 19:48:00,
2013-03-10 12:51:00,65.2,27.5,30.32,SSW,196,1.2,1.2,24,0.00,SCT,,0.00,WeatherDisplay:10.37,2013-03-10 19:51:00,
2013-03-10 12:52:00,65.4,27.6,30.33,SW,221,1.2,1.2,24,0.00,SCT,,0.00,WeatherDisplay:10.37,2013-03-10 19:52:00,
2013-03-10 12:53:00,65.4,26.6,30.33,West,259,3.5,3.5,23,0.00,SCT,,0.00,WeatherDisplay:10.37,2013-03-10 19:53:00,
2013-03-10 12:54:00,65.5,26.7,30.33,SSW,204,3.5,3.5,23,0.00,SCT,,0.00,WeatherDisplay:10.37,2013-03-10 19:54:00,
2013-03-10 12:57:00,65.6,26.8,30.33,WNW,300,2.3,2.3,23,0.00,SCT,,0.00,WeatherDisplay:10.37,2013-03-10 19:57:00,
2013-03-10 12:59:00,65.6,27.8,30.33,West,278,3.5,3.5,24,0.00,SCT,,0.00,WeatherDisplay:10.37,2013-03-10 19:59:00,
2013-03-10 13:02:00,65.7,27.9,30.32,NNE,21,1.0,1.0,24,0.00,SCT,,0.00,WeatherDisplay:10.37,2013-03-10 20:02:00,
2013-03-10 13:04:00,65.8,28.0,30.32,NE,45,1.2,1.2,24,0.00,SCT,,0.00,WeatherDisplay:10.37,2013-03-10 20:04:00,
2013-03-10 13:05:00,65.8,28.0,30.32,WNW,289,0.0,2.0,24,0.00,SCT,,0.00,WeatherDisplay:10.37,2013-03-10 20:05:00,
2013-03-10 13:08:00,66.3,28.4,30.32,NE,45,2.3,2.3,24,0.00,SCT,,0.00,WeatherDisplay:10.37,2013-03-10 20:08:00,
2013-03-10 13:09:00,66.3,27.4,30.32,NE,45,2.3,0.0,23,0.00,SCT,,0.00,WeatherDisplay:10.37,2013-03-10 20:09:00,
2013-03-10 13:10:00,66.3,28.4,30.32,NE,45,1.0,1.0,24,0.00,SCT,,0.00,WeatherDisplay:10.37,2013-03-10 20:10:00,
2013-03-10 13:13:00,66.6,27.6,30.32,NNE,21,3.5,3.5,23,0.00,SCT,,0.00,WeatherDisplay:10.37,2013-03-10 20:13:00,
2013-03-10 13:14:00,66.6,28.6,30.32,NE,40,3.5,3.5,24,0.00,SCT,,0.00,WeatherDisplay:10.37,2013-03-10 20:14:00,
2013-03-10 13:15:00,66.6,27.6,30.32,North,11,3.5,3.5,23,0.00,SCT,,0.00,WeatherDisplay:10.37,2013-03-10 20:15:00,
2013-03-10 13:16:00,66.6,26.5,30.32,North,8,3.5,3.5,22,0.00,SCT,,0.00,WeatherDisplay:10.37,2013-03-10 20:16:00,
2013-03-10 13:18:00,66.6,27.6,30.32,NNE,12,3.5,3.5,23,0.00,SCT,,0.00,WeatherDisplay:10.37,2013-03-10 20:18:00,
2013-03-10 13:19:00,66.7,28.7,30.32,ESE,105,3.5,3.5,24,0.00,SCT,,0.00,WeatherDisplay:10.37,2013-03-10 20:19:00,
2013-03-10 13:20:00,66.7,28.7,30.32,ESE,111,2.3,2.3,24,0.00,SCT,,0.00,WeatherDisplay:10.37,2013-03-10 20:20:00,
2013-03-10 13:21:00,66.8,28.8,30.32,ESE,120,3.5,3.5,24,0.00,SCT,,0.00,WeatherDisplay:10.37,2013-03-10 20:21:00,
2013-03-10 13:23:00,67.0,29.0,30.32,ESE,120,1.2,1.2,24,0.00,SCT,,0.00,WeatherDisplay:10.37,2013-03-10 20:23:00,
2013-03-10 13:24:00,67.0,29.0,30.32,ESE,120,1.2,0.0,24,0.00,SCT,,0.00,WeatherDisplay:10.37,2013-03-10 20:24:00,
2013-03-10 13:25:00,67.1,29.1,30.32,ESE,120,1.2,1.2,24,0.00,SCT,,0.00,WeatherDisplay:10.37,2013-03-10 20:25:00,
2013-03-10 13:27:00,67.3,28.2,30.32,ESE,120,0.0,0.0,23,0.00,SCT,,0.00,WeatherDisplay:10.37,2013-03-10 20:27:00,
2013-03-10 13:29:00,67.3,28.2,30.32,ESE,120,0.0,0.0,23,0.00,SCT,,0.00,WeatherDisplay:10.37,2013-03-10 20:29:00,
2013-03-10 13:30:00,67.2,27.0,30.32,ESE,120,0.0,0.0,22,0.00,SCT,,0.00,WeatherDisplay:10.37,2013-03-10 20:30:00,
2013-03-10 13:33:00,67.1,29.1,30.32,ESE,120,0.0,0.0,24,0.00,SCT,,0.00,WeatherDisplay:10.37,2013-03-10 20:33:00,
2013-03-10 13:34:00,67.1,29.1,30.32,ESE,120,0.0,0.0,24,0.00,SCT,,0.00,WeatherDisplay:10.37,2013-03-10 20:34:00,
2013-03-10 13:37:00,67.4,29.3,30.32,South,179,1.0,1.0,24,0.00,SCT,,0.00,WeatherDisplay:10.37,2013-03-10 20:37:00,
2013-03-10 13:38:00,67.4,29.3,30.32,West,260,1.2,0.0,24,0.00,SCT,,0.00,WeatherDisplay:10.37,2013-03-10 20:38:00,
2013-03-10 13:39:00,67.5,28.4,30.32,WNW,288,1.2,1.2,23,0.00,SCT,,0.00,WeatherDisplay:10.37,2013-03-10 20:39:00,
2013-03-10 13:42:00,67.6,27.4,30.32,WSW,257,0.0,0.0,22,0.00,SCT,,0.00,WeatherDisplay:10.37,2013-03-10 20:42:00,
2013-03-10 13:44:00,67.6,26.2,30.31,WSW,257,0.0,0.0,21,0.00,SCT,,0.00,WeatherDisplay:10.37,2013-03-10 20:44:00,
2013-03-10 13:45:00,67.5,26.2,30.31,WSW,256,0.0,1.0,21,0.00,SCT,,0.00,WeatherDisplay:10.37,2013-03-10 20:45:00,
2013-03-10 13:47:00,67.5,27.3,30.31,SSW,203,2.0,2.0,22,0.00,SCT,,0.00,WeatherDisplay:10.37,2013-03-10 20:47:00,
2013-03-10 13:50:00,67.5,29.4,30.31,SW,214,3.0,3.0,24,0.00,SCT,,0.00,WeatherDisplay:10.37,2013-03-10 20:50:00,
2013-03-10 13:51:00,67.6,28.5,30.31,SSW,207,3.5,3.5,23,0.00,SCT,,0.00,WeatherDisplay:10.37,2013-03-10 20:51:00,
2013-03-10 13:52:00,67.7,29.6,30.30,South,182,2.3,2.3,24,0.00,SCT,,0.00,WeatherDisplay:10.37,2013-03-10 20:52:00,
2013-03-10 13:55:00,67.8,28.6,30.30,SSW,210,0.0,3.0,23,0.00,SCT,,0.00,WeatherDisplay:10.37,2013-03-10 20:55:00,
2013-03-10 13:56:00,67.9,27.6,30.30,South,189,0.0,0.0,22,0.00,SCT,,0.00,WeatherDisplay:10.37,2013-03-10 20:56:00,
2013-03-10 13:57:00,68.0,26.6,30.30,South,189,0.0,0.0,21,0.00,SCT,,0.00,WeatherDisplay:10.37,2013-03-10 20:57:00,
2013-03-10 14:00:00,67.9,26.5,30.30,SSW,192,1.0,3.0,21,0.00,SCT,,0.00,WeatherDisplay:10.37,2013-03-10 21:00:00,
2013-03-10 14:01:00,68.0,29.8,30.30,SSW,203,3.5,3.5,24,0.00,SCT,,0.00,WeatherDisplay:10.37,2013-03-10 21:01:00,
2013-03-10 14:02:00,68.1,28.9,30.30,SSW,205,2.3,2.3,23,0.00,SCT,,0.00,WeatherDisplay:10.37,2013-03-10 21:02:00,
2013-03-10 14:03:00,68.1,28.9,30.30,SSW,205,2.3,2.3,23,0.00,SCT,,0.00,WeatherDisplay:10.37,2013-03-10 21:03:00,
2013-03-10 14:05:00,68.3,29.0,30.30,SW,216,2.0,2.0,23,0.00,SCT,,0.00,WeatherDisplay:10.37,2013-03-10 21:05:00,
2013-03-10 14:06:00,68.3,28.0,30.30,SW,234,1.2,1.2,22,0.00,SCT,,0.00,WeatherDisplay:10.37,2013-03-10 21:06:00,
2013-03-10 14:07:00,68.3,29.0,30.30,WSW,245,1.2,1.2,23,0.00,SCT,,0.00,WeatherDisplay:10.37,2013-03-10 21:07:00,
2013-03-10 14:08:00,68.3,28.0,30.30,WSW,240,2.3,2.3,22,0.00,SCT,,0.00,WeatherDisplay:10.37,2013-03-10 21:08:00,
2013-03-10 14:11:00,68.2,26.7,30.30,SW,233,2.3,2.3,21,0.00,SCT,,0.00,WeatherDisplay:10.37,2013-03-10 21:11:00,
2013-03-10 14:13:00,68.2,29.0,30.30,SSW,203,1.2,1.2,23,0.00,SCT,,0.00,WeatherDisplay:10.37,2013-03-10 21:13:00,
2013-03-10 14:14:00,68.2,26.7,30.30,SW,232,3.5,3.5,21,0.00,SCT,,0.00,WeatherDisplay:10.37,2013-03-10 21:14:00,
2013-03-10 14:18:00,68.5,29.2,30.30,SSW,207,5.0,5.0,23,0.00,SCT,,0.00,WeatherDisplay:10.37,2013-03-10 21:18:00,
2013-03-10 14:20:00,68.4,28.0,30.30,SW,220,3.5,3.5,22,0.00,SCT,,0.00,WeatherDisplay:10.37,2013-03-10 21:20:00,
2013-03-10 14:23:00,68.3,28.0,30.29,WSW,246,2.3,2.3,22,0.00,SCT,,0.00,WeatherDisplay:10.37,2013-03-10 21:23:00,
2013-03-10 14:25:00,68.4,28.0,30.29,SSW,203,3.5,3.5,22,0.00,SCT,,0.00,WeatherDisplay:10.37,2013-03-10 21:25:00,
2013-03-10 14:28:00,68.2,29.0,30.29,SSW,207,3.5,3.5,23,0.00,SCT,,0.00,WeatherDisplay:10.37,2013-03-10 21:28:00,
2013-03-10 14:30:00,68.3,29.0,30.29,SSW,207,3.5,0.0,23,0.00,SCT,,0.00,WeatherDisplay:10.37,2013-03-10 21:30:00,
2013-03-10 14:33:00,68.5,29.2,30.29,SE,144,1.2,0.0,23,0.00,SCT,,0.00,WeatherDisplay:10.37,2013-03-10 21:33:00,
2013-03-10 14:35:00,68.6,29.3,30.29,South,176,3.5,3.5,23,0.00,SCT,,0.00,WeatherDisplay:10.37,2013-03-10 21:35:00,
2013-03-10 14:38:00,68.6,28.2,30.29,SW,225,3.5,3.5,22,0.00,SCT,,0.00,WeatherDisplay:10.37,2013-03-10 21:38:00,
2013-03-10 14:39:00,68.6,29.3,30.29,SSW,199,1.2,1.2,23,0.00,SCT,,0.00,WeatherDisplay:10.37,2013-03-10 21:39:00,
2013-03-10 14:40:00,68.6,29.3,30.29,SW,234,1.2,1.2,23,0.00,SCT,,0.00,WeatherDisplay:10.37,2013-03-10 21:40:00,
2013-03-10 14:43:00,68.7,29.4,30.29,SSW,206,3.5,3.5,23,0.00,SCT,,0.00,WeatherDisplay:10.37,2013-03-10 21:43:00,
2013-03-10 14:45:00,68.8,29.5,30.29,SSW,206,2.3,0.0,23,0.00,SCT,,0.00,WeatherDisplay:10.37,2013-03-10 21:45:00,
2013-03-10 14:48:00,68.9,29.5,30.29,SSW,207,1.2,1.2,23,0.00,SCT,,0.00,WeatherDisplay:10.37,2013-03-10 21:48:00,
2013-03-10 14:49:00,68.9,27.3,30.29,SSW,209,2.3,2.3,21,0.00,SCT,,0.00,WeatherDisplay:10.37,2013-03-10 21:49:00,
2013-03-10 14:50:00,68.9,28.5,30.28,SSW,195,3.5,3.5,22,0.00,SCT,,0.00,WeatherDisplay:10.37,2013-03-10 21:50:00,
2013-03-10 14:52:00,69.0,28.5,30.28,SSW,195,2.3,2.3,22,0.00,SCT,,0.00,WeatherDisplay:10.37,2013-03-10 21:52:00,
2013-03-10 14:54:00,69.0,27.4,30.28,South,184,0.0,0.0,21,0.00,SCT,,0.00,WeatherDisplay:10.37,2013-03-10 21:54:00,
2013-03-10 14:55:00,69.0,27.4,30.28,SSW,200,0.0,3.0,21,0.00,SCT,,0.00,WeatherDisplay:10.37,2013-03-10 21:55:00,
2013-03-10 14:58:00,69.1,28.6,30.28,SSW,194,3.0,3.0,22,0.00,SCT,,0.00,WeatherDisplay:10.37,2013-03-10 21:58:00,
2013-03-10 14:59:00,69.2,28.7,30.28,SSW,203,3.5,3.5,22,0.00,SCT,,0.00,WeatherDisplay:10.37,2013-03-10 21:59:00,
2013-03-10 15:00:00,69.2,28.7,30.28,SSW,196,3.5,3.5,22,0.00,SCT,,0.00,WeatherDisplay:10.37,2013-03-10 22:00:00,
2013-03-10 15:03:00,69.3,28.8,30.29,SSW,205,2.3,2.3,22,0.00,SCT,,0.00,WeatherDisplay:10.37,2013-03-10 22:03:00,
2013-03-10 15:04:00,69.3,27.7,30.29,WSW,245,4.0,4.0,21,0.00,SCT,,0.00,WeatherDisplay:10.37,2013-03-10 22:04:00,
2013-03-10 15:05:00,69.3,28.8,30.29,SW,229,3.5,0.0,22,0.00,SCT,,0.00,WeatherDisplay:10.37,2013-03-10 22:05:00,
2013-03-10 15:07:00,69.2,27.6,30.28,SW,229,1.2,1.2,21,0.00,SCT,,0.00,WeatherDisplay:10.37,2013-03-10 22:07:00,
2013-03-10 15:08:00,69.2,28.7,30.28,South,188,3.0,3.0,22,0.00,SCT,,0.00,WeatherDisplay:10.37,2013-03-10 22:08:00,
2013-03-10 15:09:00,69.2,28.7,30.29,SSW,193,3.5,3.5,22,0.00,SCT,,0.00,WeatherDisplay:10.37,2013-03-10 22:09:00,
2013-03-10 15:10:00,69.3,29.9,30.29,SSW,200,3.5,3.5,23,0.00,SCT,,0.00,WeatherDisplay:10.37,2013-03-10 22:10:00,
2013-03-10 15:14:00,69.0,27.4,30.28,SW,233,1.2,1.2,21,0.00,SCT,,0.00,WeatherDisplay:10.37,2013-03-10 22:14:00,
2013-03-10 15:15:00,69.0,29.6,30.28,SW,236,2.3,2.3,23,0.00,SCT,,0.00,WeatherDisplay:10.37,2013-03-10 22:15:00,
2013-03-10 15:17:00,69.1,27.5,30.28,WSW,253,5.0,5.0,21,0.00,SCT,,0.00,WeatherDisplay:10.37,2013-03-10 22:17:00,
2013-03-10 15:19:00,69.0,28.5,30.29,SW,229,5.8,5.8,22,0.00,SCT,,0.00,WeatherDisplay:10.37,2013-03-10 22:19:00,
2013-03-10 15:20:00,69.0,28.5,30.29,SW,219,1.0,6.0,22,0.00,SCT,,0.00,WeatherDisplay:10.37,2013-03-10 22:20:00,
2013-03-10 15:21:00,69.0,28.5,30.29,SW,214,1.2,1.2,22,0.00,SCT,,0.00,WeatherDisplay:10.37,2013-03-10 22:21:00,
2013-03-10 15:22:00,69.0,28.5,30.29,SSW,202,2.3,2.3,22,0.00,SCT,,0.00,WeatherDisplay:10.37,2013-03-10 22:22:00,
2013-03-10 15:25:00,69.0,29.6,30.29,WSW,251,5.8,5.8,23,0.00,SCT,,0.00,WeatherDisplay:10.37,2013-03-10 22:25:00,
2013-03-10 15:26:00,69.0,28.5,30.29,SSW,206,4.6,4.6,22,0.00,SCT,,0.00,WeatherDisplay:10.37,2013-03-10 22:26:00,
2013-03-10 15:27:00,69.0,28.5,30.29,WSW,257,12.0,12.0,22,0.00,SCT,,0.00,WeatherDisplay:10.37,2013-03-10 22:27:00,
2013-03-10 15:30:00,68.8,28.4,30.29,WSW,251,4.6,4.6,22,0.00,SCT,,0.00,WeatherDisplay:10.37,2013-03-10 22:30:00,
2013-03-10 15:31:00,68.7,29.4,30.29,WSW,250,3.5,3.5,23,0.00,SCT,,0.00,WeatherDisplay:10.37,2013-03-10 22:31:00,
2013-03-10 15:32:00,68.8,29.5,30.29,WSW,254,3.5,3.5,23,0.00,SCT,,0.00,WeatherDisplay:10.37,2013-03-10 22:32:00,
2013-03-10 15:35:00,68.8,30.5,30.29,SSW,203,5.8,5.8,24,0.00,SCT,,0.00,WeatherDisplay:10.37,2013-03-10 22:35:00,
2013-03-10 15:36:00,68.8,30.5,30.29,SSW,198,5.8,5.8,24,0.00,SCT,,0.00,WeatherDisplay:10.37,2013-03-10 22:36:00,
2013-03-10 15:37:00,68.9,30.6,30.29,SSW,213,2.3,2.3,24,0.00,SCT,,0.00,WeatherDisplay:10.37,2013-03-10 22:37:00,
2013-03-10 15:38:00,68.9,29.5,30.29,SSW,208,3.5,3.5,23,0.00,SCT,,0.00,WeatherDisplay:10.37,2013-03-10 22:38:00,
2013-03-10 15:40:00,69.0,29.6,30.29,SW,227,4.6,4.6,23,0.00,SCT,,0.00,WeatherDisplay:10.37,2013-03-10 22:40:00,
2013-03-10 15:42:00,69.0,28.5,30.29,SSW,202,3.5,3.5,22,0.00,SCT,,0.00,WeatherDisplay:10.37,2013-03-10 22:42:00,
2013-03-10 15:45:00,69.1,28.6,30.29,SW,217,3.0,3.0,22,0.00,SCT,,0.00,WeatherDisplay:10.37,2013-03-10 22:45:00,
2013-03-10 15:47:00,69.1,28.6,30.29,WSW,249,3.5,3.5,22,0.00,SCT,,0.00,WeatherDisplay:10.37,2013-03-10 22:47:00,
2013-03-10 15:50:00,69.1,26.3,30.29,SW,230,1.0,5.0,20,0.00,SCT,,0.00,WeatherDisplay:10.37,2013-03-10 22:50:00,
2013-03-10 15:52:00,69.1,26.3,30.28,SW,219,3.5,3.5,20,0.00,SCT,,0.00,WeatherDisplay:10.37,2013-03-10 22:52:00,
2013-03-10 15:53:00,69.1,26.3,30.28,SW,219,3.5,3.5,20,0.00,SCT,,0.00,WeatherDisplay:10.37,2013-03-10 22:53:00,
2013-03-10 15:55:00,69.2,26.4,30.29,West,260,4.6,4.6,20,0.00,SCT,,0.00,WeatherDisplay:10.37,2013-03-10 22:55:00,
2013-03-10 15:57:00,69.2,27.6,30.29,WSW,239,5.8,5.8,21,0.00,SCT,,0.00,WeatherDisplay:10.37,2013-03-10 22:57:00,
2013-03-10 15:58:00,69.2,27.6,30.29,WSW,239,5.8,5.8,21,0.00,SCT,,0.00,WeatherDisplay:10.37,2013-03-10 22:58:00,
2013-03-10 16:00:00,69.1,28.6,30.29,SSW,198,3.5,3.5,22,0.00,SCT,,0.00,WeatherDisplay:10.37,2013-03-10 23:00:00,
2013-03-10 16:01:00,69.1,27.5,30.28,SW,236,5.0,5.0,21,0.00,SCT,,0.00,WeatherDisplay:10.37,2013-03-10 23:01:00,
2013-03-10 16:03:00,69.0,27.4,30.28,SSE,148,3.5,3.5,21,0.00,SCT,,0.00,WeatherDisplay:10.37,2013-03-10 23:03:00,
2013-03-10 16:05:00,68.9,28.5,30.28,SSW,201,6.9,6.9,22,0.00,SCT,,0.00,WeatherDisplay:10.37,2013-03-10 23:05:00,
2013-03-10 16:07:00,68.9,29.5,30.28,SSW,204,3.5,3.5,23,0.00,SCT,,0.00,WeatherDisplay:10.37,2013-03-10 23:07:00,
2013-03-10 16:08:00,69.0,29.6,30.28,SSW,203,2.3,2.3,23,0.00,SCT,,0.00,WeatherDisplay:10.37,2013-03-10 23:08:00,
2013-03-10 16:10:00,69.0,28.5,30.28,South,189,3.5,3.5,22,0.00,SCT,,0.00,WeatherDisplay:10.37,2013-03-10 23:10:00,
2013-03-10 16:12:00,68.9,28.5,30.28,SSW,202,3.5,3.5,22,0.00,SCT,,0.00,WeatherDisplay:10.37,2013-03-10 23:12:00,
2013-03-10 16:14:00,68.9,29.5,30.28,SW,225,3.5,3.5,23,0.00,SCT,,0.00,WeatherDisplay:10.37,2013-03-10 23:14:00,
2013-03-10 16:16:00,68.8,29.5,30.28,SSW,196,4.6,4.6,23,0.00,SCT,,0.00,WeatherDisplay:10.37,2013-03-10 23:16:00,
2013-03-10 16:17:00,68.8,29.5,30.28,SSW,194,3.5,3.5,23,0.00,SCT,,0.00,WeatherDisplay:10.37,2013-03-10 23:17:00,
2013-03-10 16:19:00,68.8,28.4,30.28,WSW,248,3.5,3.5,22,0.00,SCT,,0.00,WeatherDisplay:10.37,2013-03-10 23:19:00,
2013-03-10 16:22:00,68.6,30.3,30.28,SW,214,3.5,3.5,24,0.00,SCT,,0.00,WeatherDisplay:10.37,2013-03-10 23:22:00,
2013-03-10 16:24:00,68.6,30.3,30.28,WSW,241,3.5,3.5,24,0.00,SCT,,0.00,WeatherDisplay:10.37,2013-03-10 23:24:00,
2013-03-10 16:27:00,68.6,30.3,30.28,WSW,248,1.2,1.2,24,0.00,SCT,,0.00,WeatherDisplay:10.37,2013-03-10 23:27:00,
2013-03-10 16:30:00,68.7,31.4,30.28,SE,141,2.3,2.3,25,0.00,SCT,,0.00,WeatherDisplay:10.37,2013-03-10 23:30:00,
2013-03-10 16:31:00,68.7,33.3,30.28,South,179,2.3,2.3,27,0.00,SCT,,0.00,WeatherDisplay:10.37,2013-03-10 23:31:00,
2013-03-10 16:33:00,68.7,33.3,30.28,South,187,3.5,3.5,27,0.00,SCT,,0.00,WeatherDisplay:10.37,2013-03-10 23:33:00,
2013-03-10 16:35:00,68.8,34.3,30.28,SSW,202,1.2,1.2,28,0.00,SCT,,0.00,WeatherDisplay:10.37,2013-03-10 23:35:00,
2013-03-10 16:36:00,68.8,34.3,30.28,SSE,164,1.2,1.2,28,0.00,SCT,,0.00,WeatherDisplay:10.37,2013-03-10 23:36:00,
2013-03-10 16:37:00,68.8,35.2,30.28,SE,140,2.3,2.3,29,0.00,SCT,,0.00,WeatherDisplay:10.37,2013-03-10 23:37:00,
2013-03-10 16:38:00,68.9,35.3,30.28,ESE,121,2.3,2.3,29,0.00,SCT,,0.00,WeatherDisplay:10.37,2013-03-10 23:38:00,
2013-03-10 16:40:00,68.9,34.4,30.28,ESE,121,3.5,3.5,28,0.00,SCT,,0.00,WeatherDisplay:10.37,2013-03-10 23:40:00,
2013-03-10 16:41:00,68.9,34.4,30.28,East,96,3.5,3.5,28,0.00,SCT,,0.00,WeatherDisplay:10.37,2013-03-10 23:41:00,
2013-03-10 16:42:00,68.9,34.4,30.28,East,100,2.3,2.3,28,0.00,SCT,,0.00,WeatherDisplay:10.37,2013-03-10 23:42:00,
2013-03-10 16:44:00,68.9,34.4,30.28,ESE,123,3.5,3.5,28,0.00,SCT,,0.00,WeatherDisplay:10.37,2013-03-10 23:44:00,
2013-03-10 16:45:00,68.9,35.3,30.28,SSE,154,3.5,3.5,29,0.00,SCT,,0.00,WeatherDisplay:10.37,2013-03-10 23:45:00,
2013-03-10 16:46:00,68.9,36.2,30.28,SE,132,3.5,3.5,30,0.00,SCT,,0.00,WeatherDisplay:10.37,2013-03-10 23:46:00,
2013-03-10 16:48:00,69.0,37.1,30.28,SE,130,4.6,4.6,31,0.00,SCT,,0.00,WeatherDisplay:10.37,2013-03-10 23:48:00,
2013-03-10 16:50:00,69.0,37.1,30.28,ESE,123,3.5,3.5,31,0.00,SCT,,0.00,WeatherDisplay:10.37,2013-03-10 23:50:00,
2013-03-10 16:52:00,69.0,37.9,30.28,SSE,154,3.5,3.5,32,0.00,SCT,,0.00,WeatherDisplay:10.37,2013-03-10 23:52:00,
2013-03-10 16:53:00,69.0,37.9,30.28,SE,143,3.5,3.5,32,0.00,SCT,,0.00,WeatherDisplay:10.37,2013-03-10 23:53:00,
2013-03-10 16:55:00,69.0,37.9,30.28,ESE,114,1.0,5.0,32,0.00,SCT,,0.00,WeatherDisplay:10.37,2013-03-10 23:55:00,
2013-03-10 16:57:00,68.9,37.8,30.28,SE,133,2.3,2.3,32,0.00,SCT,,0.00,WeatherDisplay:10.37,2013-03-10 23:57:00,
2013-03-10 17:00:00,68.9,37.8,30.28,SSW,197,2.0,2.0,32,0.00,SCT,,0.00,WeatherDisplay:10.37,2013-03-11 00:00:00,
2013-03-10 17:02:00,68.8,37.7,30.27,South,186,4.6,4.6,32,0.00,SCT,,0.00,WeatherDisplay:10.37,2013-03-11 00:02:00,
2013-03-10 17:03:00,68.8,37.7,30.28,SSW,201,4.6,4.6,32,0.00,SCT,,0.00,WeatherDisplay:10.37,2013-03-11 00:03:00,
2013-03-10 17:05:00,68.7,36.8,30.27,SE,128,2.3,2.3,31,0.00,SCT,,0.00,WeatherDisplay:10.37,2013-03-11 00:05:00,
2013-03-10 17:08:00,68.7,38.4,30.27,SE,137,3.5,3.5,33,0.00,SCT,,0.00,WeatherDisplay:10.37,2013-03-11 00:08:00,
2013-03-10 17:09:00,68.7,38.4,30.27,ESE,107,3.5,3.5,33,0.00,SCT,,0.00,WeatherDisplay:10.37,2013-03-11 00:09:00,
2013-03-10 17:10:00,68.7,38.4,30.27,SE,136,3.5,3.5,33,0.00,SCT,,0.00,WeatherDisplay:10.37,2013-03-11 00:10:00,
2013-03-10 17:13:00,68.6,37.5,30.27,ENE,73,3.5,3.5,32,0.00,SCT,,0.00,WeatherDisplay:10.37,2013-03-11 00:13:00,
2013-03-10 17:14:00,68.6,37.5,30.27,ENE,75,3.5,3.5,32,0.00,SCT,,0.00,WeatherDisplay:10.37,2013-03-11 00:14:00,
2013-03-10 17:15:00,68.6,38.3,30.27,NE,48,3.5,3.5,33,0.00,SCT,,0.00,WeatherDisplay:10.37,2013-03-11 00:15:00,
2013-03-10 17:18:00,68.5,38.2,30.27,ENE,77,1.2,1.2,33,0.00,SCT,,0.00,WeatherDisplay:10.37,2013-03-11 00:18:00,
2013-03-10 17:19:00,68.5,38.2,30.27,ENE,67,2.3,2.3,33,0.00,SCT,,0.00,WeatherDisplay:10.37,2013-03-11 00:19:00,
2013-03-10 17:21:00,68.5,38.2,30.27,East,101,2.3,2.3,33,0.00,SCT,,0.00,WeatherDisplay:10.37,2013-03-11 00:21:00,
2013-03-10 17:24:00,68.5,38.2,30.27,ENE,70,2.3,2.3,33,0.00,SCT,,0.00,WeatherDisplay:10.37,2013-03-11 00:24:00,
2013-03-10 17:25:00,68.5,38.2,30.27,ENE,70,3.5,3.5,33,0.00,SCT,,0.00,WeatherDisplay:10.37,2013-03-11 00:25:00,
2013-03-10 17:26:00,68.5,38.2,30.27,ENE,70,2.3,2.3,33,0.00,SCT,,0.00,WeatherDisplay:10.37,2013-03-11 00:26:00,
2013-03-10 17:29:00,68.5,38.2,30.27,SSW,213,2.3,2.3,33,0.00,SCT,,0.00,WeatherDisplay:10.37,2013-03-11 00:29:00,
2013-03-10 17:30:00,68.5,38.2,30.27,SSW,213,2.3,2.3,33,0.00,SCT,,0.00,WeatherDisplay:10.37,2013-03-11 00:30:00,
2013-03-10 17:32:00,68.5,38.2,30.27,ESE,118,2.0,0.0,33,0.00,SCT,,0.00,WeatherDisplay:10.37,2013-03-11 00:32:00,
2013-03-10 17:34:00,68.5,38.2,30.27,ESE,118,0.0,0.0,33,0.00,SCT,,0.00,WeatherDisplay:10.37,2013-03-11 00:34:00,
2013-03-10 17:37:00,68.4,38.9,30.27,SSE,157,3.5,3.5,34,0.00,SCT,,0.00,WeatherDisplay:10.37,2013-03-11 00:37:00,
2013-03-10 17:42:00,68.3,40.3,30.27,ESE,114,3.5,3.5,36,0.00,SCT,,0.00,WeatherDisplay:10.37,2013-03-11 00:42:00,
2013-03-10 17:43:00,68.3,40.3,30.27,ESE,107,3.5,3.5,36,0.00,SCT,,0.00,WeatherDisplay:10.37,2013-03-11 00:43:00,
2013-03-10 17:48:00,68.2,40.9,30.27,SE,126,3.5,3.5,37,0.00,SCT,,0.00,WeatherDisplay:10.37,2013-03-11 00:48:00,
2013-03-10 17:53:00,68.0,41.4,30.27,SE,146,3.5,3.5,38,0.00,SCT,,0.00,WeatherDisplay:10.37,2013-03-11 00:53:00,
2013-03-10 17:54:00,68.0,41.4,30.27,SE,136,5.0,5.0,38,0.00,SCT,,0.00,WeatherDisplay:10.37,2013-03-11 00:54:00,
2013-03-10 17:55:00,68.0,41.4,30.27,SSE,152,4.6,4.6,38,0.00,SCT,,0.00,WeatherDisplay:10.37,2013-03-11 00:55:00,
2013-03-10 17:59:00,67.8,41.3,30.27,SSE,153,2.3,2.3,38,0.00,SCT,,0.00,WeatherDisplay:10.37,2013-03-11 00:59:00,
2013-03-10 18:00:00,67.8,41.9,30.27,East,100,3.5,3.5,39,0.00,SCT,,0.00,WeatherDisplay:10.37,2013-03-11 01:00:00,
2013-03-10 18:04:00,67.6,41.7,30.27,SE,136,3.5,3.5,39,0.00,SCT,,0.00,WeatherDisplay:10.37,2013-03-11 01:04:00,
2013-03-10 18:05:00,67.5,41.7,30.27,ESE,123,5.0,5.0,39,0.00,SCT,,0.00,WeatherDisplay:10.37,2013-03-11 01:05:00,
2013-03-10 18:07:00,67.5,41.7,30.27,SSE,151,5.0,5.0,39,0.00,SCT,,0.00,WeatherDisplay:10.37,2013-03-11 01:07:00,
2013-03-10 18:09:00,67.3,41.5,30.27,SE,133,3.5,3.5,39,0.00,SCT,,0.00,WeatherDisplay:10.37,2013-03-11 01:09:00,
2013-03-10 18:10:00,67.3,41.5,30.27,SE,133,3.5,3.5,39,0.00,SCT,,0.00,WeatherDisplay:10.37,2013-03-11 01:10:00,
2013-03-10 18:12:00,67.2,41.4,30.27,SE,138,3.5,3.5,39,0.00,SCT,,0.00,WeatherDisplay:10.37,2013-03-11 01:12:00,
2013-03-10 18:14:00,67.1,41.3,30.27,ESE,115,5.8,5.8,39,0.00,SCT,,0.00,WeatherDisplay:10.37,2013-03-11 01:14:00,
2013-03-10 18:15:00,67.0,41.2,30.27,SE,134,4.6,4.6,39,0.00,SCT,,0.00,WeatherDisplay:10.37,2013-03-11 01:15:00,
2013-03-10 18:18:00,66.9,41.1,30.27,ESE,110,4.6,4.6,39,0.00,SCT,,0.00,WeatherDisplay:10.37,2013-03-11 01:18:00,
2013-03-10 18:20:00,66.8,41.0,30.27,SE,133,4.6,4.6,39,0.00,SCT,,0.00,WeatherDisplay:10.37,2013-03-11 01:20:00,
2013-03-10 18:23:00,66.6,40.2,30.27,SE,131,2.3,2.3,38,0.00,SCT,,0.00,WeatherDisplay:10.37,2013-03-11 01:23:00,
2013-03-10 18:25:00,66.5,39.4,30.27,South,180,3.5,3.5,37,0.00,SCT,,0.00,WeatherDisplay:10.37,2013-03-11 01:25:00,
2013-03-10 18:29:00,66.3,38.5,30.27,SSE,162,3.5,3.5,36,0.00,SCT,,0.00,WeatherDisplay:10.37,2013-03-11 01:29:00,
2013-03-10 18:30:00,66.2,38.4,30.27,SSW,210,3.5,3.5,36,0.00,SCT,,0.00,WeatherDisplay:10.37,2013-03-11 01:30:00,
2013-03-10 18:34:00,66.0,38.3,30.27,SSE,164,4.6,4.6,36,0.00,SCT,,0.00,WeatherDisplay:10.37,2013-03-11 01:34:00,
2013-03-10 18:35:00,65.9,38.2,30.27,SE,135,2.3,2.3,36,0.00,SCT,,0.00,WeatherDisplay:10.37,2013-03-11 01:35:00,
2013-03-10 18:36:00,65.9,38.2,30.27,SE,126,2.3,2.3,36,0.00,SCT,,0.00,WeatherDisplay:10.37,2013-03-11 01:36:00,
2013-03-10 18:39:00,65.7,38.0,30.27,SW,217,3.5,3.5,36,0.00,SCT,,0.00,WeatherDisplay:10.37,2013-03-11 01:39:00,
2013-03-10 18:40:00,65.7,38.0,30.27,SSW,194,2.3,2.3,36,0.00,SCT,,0.00,WeatherDisplay:10.37,2013-03-11 01:40:00,
2013-03-10 18:43:00,65.4,37.7,30.27,South,186,1.2,1.2,36,0.00,SCT,,0.00,WeatherDisplay:10.37,2013-03-11 01:43:00,
2013-03-10 18:45:00,65.3,37.6,30.27,SE,126,3.5,3.5,36,0.00,SCT,,0.00,WeatherDisplay:10.37,2013-03-11 01:45:00,
2013-03-10 18:46:00,65.2,37.6,30.27,SE,126,3.5,3.5,36,0.00,SCT,,0.00,WeatherDisplay:10.37,2013-03-11 01:46:00,
2013-03-10 18:48:00,65.2,37.6,30.27,ESE,110,3.5,3.5,36,0.00,SCT,,0.00,WeatherDisplay:10.37,2013-03-11 01:48:00,
2013-03-10 18:50:00,65.0,37.4,30.27,SE,139,3.5,3.5,36,0.00,SCT,,0.00,WeatherDisplay:10.37,2013-03-11 01:50:00,
2013-03-10 18:51:00,64.9,38.0,30.27,SE,138,1.2,1.2,37,0.00,SCT,,0.00,WeatherDisplay:10.37,2013-03-11 01:51:00,
2013-03-10 18:53:00,64.8,37.2,30.27,SSW,213,2.3,2.3,36,0.00,SCT,,0.00,WeatherDisplay:10.37,2013-03-11 01:53:00,
2013-03-10 18:56:00,64.6,37.0,30.27,SE,136,1.2,1.2,36,0.00,SCT,,0.00,WeatherDisplay:10.37,2013-03-11 01:56:00,
2013-03-10 18:57:00,64.6,37.0,30.27,SSE,153,4.0,4.0,36,0.00,SCT,,0.00,WeatherDisplay:10.37,2013-03-11 01:57:00,
2013-03-10 18:58:00,64.5,37.6,30.27,SSE,154,3.5,3.5,37,0.00,SCT,,0.00,WeatherDisplay:10.37,2013-03-11 01:58:00,
2013-03-10 19:01:00,64.3,36.8,30.27,SE,132,1.2,1.2,36,0.00,SCT,,0.00,WeatherDisplay:10.37,2013-03-11 02:01:00,
2013-03-10 19:02:00,64.3,37.5,30.27,SE,130,1.2,1.2,37,0.00,SCT,,0.00,WeatherDisplay:10.37,2013-03-11 02:02:00,
2013-03-10 19:03:00,64.2,37.4,30.27,SE,130,1.2,1.2,37,0.00,SCT,,0.00,WeatherDisplay:10.37,2013-03-11 02:03:00,
2013-03-10 19:07:00,63.9,37.1,30.27,SE,135,0.0,0.0,37,0.00,SCT,,0.00,WeatherDisplay:10.37,2013-03-11 02:07:00,
2013-03-10 19:08:00,63.9,37.1,30.28,SE,135,0.0,0.0,37,0.00,SCT,,0.00,WeatherDisplay:10.37,2013-03-11 02:08:00,
2013-03-10 19:09:00,63.9,37.1,30.27,SE,135,0.0,0.0,37,0.00,SCT,,0.00,WeatherDisplay:10.37,2013-03-11 02:09:00,
2013-03-10 19:13:00,63.6,36.1,30.27,South,173,2.3,2.3,36,0.00,SCT,,0.00,WeatherDisplay:10.37,2013-03-11 02:13:00,
2013-03-10 19:14:00,63.5,36.0,30.27,SSE,148,1.2,1.2,36,0.00,SCT,,0.00,WeatherDisplay:10.37,2013-03-11 02:14:00,
2013-03-10 19:18:00,63.2,36.5,30.27,SSE,157,3.5,3.5,37,0.00,SCT,,0.00,WeatherDisplay:10.37,2013-03-11 02:18:00,
2013-03-10 19:19:00,63.2,36.5,30.27,South,184,3.5,3.5,37,0.00,SCT,,0.00,WeatherDisplay:10.37,2013-03-11 02:19:00,
2013-03-10 19:20:00,63.1,35.7,30.27,SE,130,2.3,2.3,36,0.00,SCT,,0.00,WeatherDisplay:10.37,2013-03-11 02:20:00,
2013-03-10 19:24:00,62.9,36.2,30.28,South,183,2.3,2.3,37,0.00,SCT,,0.00,WeatherDisplay:10.37,2013-03-11 02:24:00,
2013-03-10 19:26:00,62.8,35.4,30.28,South,183,1.2,1.2,36,0.00,SCT,,0.00,WeatherDisplay:10.37,2013-03-11 02:26:00,
2013-03-10 19:29:00,62.7,35.3,30.27,South,183,0.0,0.0,36,0.00,SCT,,0.00,WeatherDisplay:10.37,2013-03-11 02:29:00,
2013-03-10 19:30:00,62.7,35.3,30.28,South,183,0.0,0.0,36,0.00,SCT,,0.00,WeatherDisplay:10.37,2013-03-11 02:30:00,
2013-03-10 19:31:00,62.6,35.3,30.27,SSE,157,2.0,2.0,36,0.00,SCT,,0.00,WeatherDisplay:10.37,2013-03-11 02:31:00,
2013-03-10 19:34:00,62.5,35.2,30.28,SSE,149,0.0,0.0,36,0.00,SCT,,0.00,WeatherDisplay:10.37,2013-03-11 02:34:00,
2013-03-10 19:35:00,62.4,35.1,30.28,SSE,149,1.2,1.2,36,0.00,SCT,,0.00,WeatherDisplay:10.37,2013-03-11 02:35:00,
2013-03-10 19:36:00,62.3,35.7,30.28,SSE,149,1.2,0.0,37,0.00,SCT,,0.00,WeatherDisplay:10.37,2013-03-11 02:36:00,
2013-03-10 19:37:00,62.3,35.7,30.28,SSE,149,1.2,1.2,37,0.00,SCT,,0.00,WeatherDisplay:10.37,2013-03-11 02:37:00,
2013-03-10 19:39:00,62.2,35.6,30.28,South,191,1.2,1.2,37,0.00,SCT,,0.00,WeatherDisplay:10.37,2013-03-11 02:39:00,
2013-03-10 19:41:00,62.1,35.5,30.28,South,191,1.2,1.2,37,0.00,SCT,,0.00,WeatherDisplay:10.37,2013-03-11 02:41:00,
2013-03-10 19:42:00,62.1,36.2,30.28,SSW,194,1.2,1.2,38,0.00,SCT,,0.00,WeatherDisplay:10.37,2013-03-11 02:42:00,
2013-03-10 19:45:00,62.0,36.1,30.28,South,189,0.0,1.0,38,0.00,SCT,,0.00,WeatherDisplay:10.37,2013-03-11 02:45:00,
2013-03-10 19:46:00,61.9,36.0,30.28,SSW,194,0.0,0.0,38,0.00,SCT,,0.00,WeatherDisplay:10.37,2013-03-11 02:46:00,
2013-03-10 19:47:00,61.9,36.0,30.28,SSW,201,1.2,1.2,38,0.00,SCT,,0.00,WeatherDisplay:10.37,2013-03-11 02:47:00,
2013-03-10 19:50:00,61.7,35.8,30.28,SSW,201,2.3,2.3,38,0.00,SCT,,0.00,WeatherDisplay:10.37,2013-03-11 02:50:00,
2013-03-10 19:51:00,61.7,35.8,30.28,SSW,202,0.0,0.0,38,0.00,SCT,,0.00,WeatherDisplay:10.37,2013-03-11 02:51:00,
2013-03-10 19:52:00,61.7,35.8,30.28,SSW,202,0.0,0.0,38,0.00,SCT,,0.00,WeatherDisplay:10.37,2013-03-11 02:52:00,
2013-03-10 19:55:00,61.5,35.6,30.28,ESE,116,0.0,0.6,38,0.00,SCT,,0.00,WeatherDisplay:10.37,2013-03-11 02:55:00,
2013-03-10 19:57:00,61.5,35.6,30.28,ESE,115,1.2,0.0,38,0.00,SCT,,0.00,WeatherDisplay:10.37,2013-03-11 02:57:00,
2013-03-10 19:59:00,61.4,35.5,30.28,ESE,116,1.2,0.0,38,0.00,SCT,,0.00,WeatherDisplay:10.37,2013-03-11 02:59:00,
2013-03-10 20:00:00,61.3,35.5,30.28,SE,136,2.0,2.0,38,0.00,SCT,,0.00,WeatherDisplay:10.37,2013-03-11 03:00:00,
2013-03-10 20:02:00,61.2,35.4,30.28,SE,141,3.5,0.0,38,0.00,SCT,,0.00,WeatherDisplay:10.37,2013-03-11 03:02:00,
2013-03-10 20:04:00,61.0,35.8,30.28,SE,142,1.2,1.2,39,0.00,SCT,,0.00,WeatherDisplay:10.37,2013-03-11 03:04:00,
2013-03-10 20:05:00,61.0,35.8,30.28,SE,142,1.2,0.0,39,0.00,SCT,,0.00,WeatherDisplay:10.37,2013-03-11 03:05:00,
2013-03-10 20:06:00,60.9,35.8,30.28,SSW,212,1.2,1.2,39,0.00,SCT,,0.00,WeatherDisplay:10.37,2013-03-11 03:06:00,
2013-03-10 20:07:00,60.9,35.8,30.29,SSW,213,2.0,2.0,39,0.00,SCT,,0.00,WeatherDisplay:10.37,2013-03-11 03:07:00,
2013-03-10 20:10:00,60.8,35.7,30.29,SW,217,2.3,2.3,39,0.00,SCT,,0.00,WeatherDisplay:10.37,2013-03-11 03:10:00,
2013-03-10 20:12:00,60.7,35.6,30.29,SW,217,2.3,0.0,39,0.00,SCT,,0.00,WeatherDisplay:10.37,2013-03-11 03:12:00,
2013-03-10 20:15:00,60.3,35.9,30.29,SW,217,1.0,1.0,40,0.00,SCT,,0.00,WeatherDisplay:10.37,2013-03-11 03:15:00,
2013-03-10 20:17:00,60.3,35.9,30.29,SW,217,1.2,0.0,40,0.00,SCT,,0.00,WeatherDisplay:10.37,2013-03-11 03:17:00,
2013-03-10 20:18:00,60.1,35.7,30.29,SW,217,0.0,0.0,40,0.00,SCT,,0.00,WeatherDisplay:10.37,2013-03-11 03:18:00,
2013-03-10 20:20:00,59.9,35.5,30.29,SW,216,1.2,0.0,40,0.00,SCT,,0.00,WeatherDisplay:10.37,2013-03-11 03:20:00,
2013-03-10 20:22:00,59.9,35.5,30.29,SW,216,0.0,0.0,40,0.00,SCT,,0.00,WeatherDisplay:10.37,2013-03-11 03:22:00,
2013-03-10 20:23:00,59.8,36.0,30.29,SW,216,0.0,0.0,41,0.00,SCT,,0.00,WeatherDisplay:10.37,2013-03-11 03:23:00,
2013-03-10 20:24:00,59.8,35.4,30.29,SW,216,0.0,0.0,40,0.00,SCT,,0.00,WeatherDisplay:10.37,2013-03-11 03:24:00,
2013-03-10 20:27:00,59.6,35.9,30.29,SW,216,0.0,0.0,41,0.00,SCT,,0.00,WeatherDisplay:10.37,2013-03-11 03:27:00,
2013-03-10 20:29:00,59.5,35.8,30.29,SW,216,0.0,0.0,41,0.00,SCT,,0.00,WeatherDisplay:10.37,2013-03-11 03:29:00,
2013-03-10 20:32:00,59.4,35.7,30.29,SW,216,1.2,1.2,41,0.00,SCT,,0.00,WeatherDisplay:10.37,2013-03-11 03:32:00,
2013-03-10 20:34:00,59.2,35.5,30.29,SW,216,0.0,0.0,41,0.00,SCT,,0.00,WeatherDisplay:10.37,2013-03-11 03:34:00,
2013-03-10 20:35:00,59.2,34.9,30.29,SW,216,0.0,0.0,40,0.00,SCT,,0.00,WeatherDisplay:10.37,2013-03-11 03:35:00,
2013-03-10 20:37:00,59.0,35.3,30.29,SW,216,1.2,0.0,41,0.00,SCT,,0.00,WeatherDisplay:10.37,2013-03-11 03:37:00,
2013-03-10 20:38:00,58.9,35.2,30.29,SW,216,0.0,0.0,41,0.00,SCT,,0.00,WeatherDisplay:10.37,2013-03-11 03:38:00,
2013-03-10 20:39:00,58.9,35.2,30.29,SW,216,0.0,0.0,41,0.00,SCT,,0.00,WeatherDisplay:10.37,2013-03-11 03:39:00,
2013-03-10 20:40:00,58.9,35.2,30.29,SW,216,0.0,0.0,41,0.00,SCT,,0.00,WeatherDisplay:10.37,2013-03-11 03:40:00,
2013-03-10 20:43:00,58.9,35.8,30.29,SW,216,0.0,0.0,42,0.00,SCT,,0.00,WeatherDisplay:10.37,2013-03-11 03:43:00,
2013-03-10 20:44:00,58.9,35.8,30.29,SW,216,0.0,0.0,42,0.00,SCT,,0.00,WeatherDisplay:10.37,2013-03-11 03:44:00,
2013-03-10 20:46:00,58.8,35.7,30.29,SW,216,0.0,0.0,42,0.00,SCT,,0.00,WeatherDisplay:10.37,2013-03-11 03:46:00,
2013-03-10 20:48:00,58.7,35.7,30.29,SW,216,0.0,0.0,42,0.00,SCT,,0.00,WeatherDisplay:10.37,2013-03-11 03:48:00,
2013-03-10 20:49:00,58.7,35.7,30.29,SW,216,0.0,0.0,42,0.00,SCT,,0.00,WeatherDisplay:10.37,2013-03-11 03:49:00,
2013-03-10 20:50:00,58.7,35.7,30.29,SW,216,0.0,0.0,42,0.00,SCT,,0.00,WeatherDisplay:10.37,2013-03-11 03:50:00,
2013-03-10 20:51:00,58.6,35.6,30.29,SW,216,0.0,0.0,42,0.00,SCT,,0.00,WeatherDisplay:10.37,2013-03-11 03:51:00,
2013-03-10 20:53:00,58.4,34.8,30.29,SW,216,0.0,0.0,41,0.00,SCT,,0.00,WeatherDisplay:10.37,2013-03-11 03:53:00,
2013-03-10 20:55:00,58.3,34.7,30.29,SW,216,0.0,0.0,41,0.00,SCT,,0.00,WeatherDisplay:10.37,2013-03-11 03:55:00,
2013-03-10 20:58:00,58.2,34.6,30.29,SW,216,0.0,0.0,41,0.00,SCT,,0.00,WeatherDisplay:10.37,2013-03-11 03:58:00,
2013-03-10 20:59:00,58.1,35.1,30.29,SW,216,0.0,0.0,42,0.00,SCT,,0.00,WeatherDisplay:10.37,2013-03-11 03:59:00,
2013-03-10 21:00:00,58.1,35.1,30.28,SW,216,0.0,0.0,42,0.00,SCT,,0.00,WeatherDisplay:10.37,2013-03-11 04:00:00,
2013-03-10 21:01:00,58.1,34.5,30.29,SW,216,0.0,0.0,41,0.00,SCT,,0.00,WeatherDisplay:10.37,2013-03-11 04:01:00,
2013-03-10 21:05:00,58.0,34.4,30.28,SW,216,0.0,0.0,41,0.00,SCT,,0.00,WeatherDisplay:10.37,2013-03-11 04:05:00,
2013-03-10 21:06:00,58.0,34.4,30.28,SW,216,0.0,0.0,41,0.00,SCT,,0.00,WeatherDisplay:10.37,2013-03-11 04:06:00,
2013-03-10 21:08:00,57.9,34.3,30.28,SW,216,0.0,0.0,41,0.00,SCT,,0.00,WeatherDisplay:10.37,2013-03-11 04:08:00,
2013-03-10 21:10:00,57.9,34.9,30.29,SW,216,0.0,0.0,42,0.00,SCT,,0.00,WeatherDisplay:10.37,2013-03-11 04:10:00,
2013-03-10 21:11:00,57.9,34.9,30.29,SW,216,0.0,0.0,42,0.00,SCT,,0.00,WeatherDisplay:10.37,2013-03-11 04:11:00,
2013-03-10 21:14:00,57.8,34.8,30.28,SW,216,0.0,0.0,42,0.00,SCT,,0.00,WeatherDisplay:10.37,2013-03-11 04:14:00,
2013-03-10 21:17:00,57.7,34.7,30.29,SW,216,0.0,0.0,42,0.00,SCT,,0.00,WeatherDisplay:10.37,2013-03-11 04:17:00,
2013-03-10 21:19:00,57.6,35.2,30.28,SW,216,0.0,0.0,43,0.00,SCT,,0.00,WeatherDisplay:10.37,2013-03-11 04:19:00,
2013-03-10 21:20:00,57.6,35.2,30.29,SW,216,0.0,0.0,43,0.00,SCT,,0.00,WeatherDisplay:10.37,2013-03-11 04:20:00,
2013-03-10 21:23:00,57.5,35.2,30.29,SW,216,0.0,0.0,43,0.00,SCT,,0.00,WeatherDisplay:10.37,2013-03-11 04:23:00,
2013-03-10 21:24:00,57.4,35.1,30.29,SW,216,0.0,0.0,43,0.00,SCT,,0.00,WeatherDisplay:10.37,2013-03-11 04:24:00,
2013-03-10 21:26:00,57.3,35.6,30.28,SW,216,0.0,0.0,44,0.00,SCT,,0.00,WeatherDisplay:10.37,2013-03-11 04:26:00,
2013-03-10 21:28:00,57.2,35.5,30.29,SW,216,0.0,0.0,44,0.00,SCT,,0.00,WeatherDisplay:10.37,2013-03-11 04:28:00,
2013-03-10 21:29:00,57.1,35.4,30.29,SW,216,0.0,0.0,44,0.00,SCT,,0.00,WeatherDisplay:10.37,2013-03-11 04:29:00,
2013-03-10 21:31:00,56.9,35.2,30.29,SW,216,0.0,0.0,44,0.00,SCT,,0.00,WeatherDisplay:10.37,2013-03-11 04:31:00,
2013-03-10 21:33:00,56.8,35.1,30.28,SW,216,0.0,0.0,44,0.00,SCT,,0.00,WeatherDisplay:10.37,2013-03-11 04:33:00,
2013-03-10 21:34:00,56.8,35.1,30.29,SW,216,0.0,0.0,44,0.00,SCT,,0.00,WeatherDisplay:10.37,2013-03-11 04:34:00,
2013-03-10 21:35:00,56.8,35.1,30.29,SW,216,0.0,0.0,44,0.00,SCT,,0.00,WeatherDisplay:10.37,2013-03-11 04:35:00,
2013-03-10 21:36:00,56.8,35.1,30.29,SW,216,0.0,0.0,44,0.00,SCT,,0.00,WeatherDisplay:10.37,2013-03-11 04:36:00,
2013-03-10 21:39:00,56.7,35.0,30.29,SW,216,0.0,0.0,44,0.00,SCT,,0.00,WeatherDisplay:10.37,2013-03-11 04:39:00,
2013-03-10 21:40:00,56.7,35.0,30.29,SW,216,0.0,0.0,44,0.00,SCT,,0.00,WeatherDisplay:10.37,2013-03-11 04:40:00,
2013-03-10 21:42:00,56.6,35.5,30.29,SW,216,0.0,0.0,45,0.00,SCT,,0.00,WeatherDisplay:10.37,2013-03-11 04:42:00,
2013-03-10 21:44:00,56.6,35.5,30.28,SW,216,0.0,0.0,45,0.00,SCT,,0.00,WeatherDisplay:10.37,2013-03-11 04:44:00,
2013-03-10 21:47:00,56.5,35.4,30.29,SW,216,0.0,0.0,45,0.00,SCT,,0.00,WeatherDisplay:10.37,2013-03-11 04:47:00,
2013-03-10 21:49:00,56.3,35.2,30.28,SW,216,0.0,0.0,45,0.00,SCT,,0.00,WeatherDisplay:10.37,2013-03-11 04:49:00,
2013-03-10 21:50:00,56.3,35.2,30.28,SW,216,0.0,0.0,45,0.00,SCT,,0.00,WeatherDisplay:10.37,2013-03-11 04:50:00,
2013-03-10 21:53:00,56.1,35.6,30.29,SW,216,0.0,0.0,46,0.00,SCT,,0.00,WeatherDisplay:10.37,2013-03-11 04:53:00,
2013-03-10 21:55:00,56.1,35.6,30.29,SW,216,0.0,0.0,46,0.00,SCT,,0.00,WeatherDisplay:10.37,2013-03-11 04:55:00,
2013-03-10 21:58:00,55.9,35.4,30.29,SW,216,0.0,0.0,46,0.00,SCT,,0.00,WeatherDisplay:10.37,2013-03-11 04:58:00,
2013-03-10 22:00:00,55.9,35.4,30.29,SW,216,0.0,0.0,46,0.00,SCT,,0.00,WeatherDisplay:10.37,2013-03-11 05:00:00,
2013-03-10 22:03:00,55.7,35.2,30.29,SW,216,0.0,0.0,46,0.00,SCT,,0.00,WeatherDisplay:10.37,2013-03-11 05:03:00,
2013-03-10 22:05:00,55.6,35.1,30.29,SW,216,0.0,0.0,46,0.00,SCT,,0.00,WeatherDisplay:10.37,2013-03-11 05:05:00,
2013-03-10 22:06:00,55.6,35.1,30.29,SW,216,0.0,0.0,46,0.00,SCT,,0.00,WeatherDisplay:10.37,2013-03-11 05:06:00,
2013-03-10 22:07:00,55.6,35.7,30.29,SW,216,1.0,0.0,47,0.00,SCT,,0.00,WeatherDisplay:10.37,2013-03-11 05:07:00,
2013-03-10 22:10:00,55.4,34.9,30.29,SW,216,0.0,0.0,46,0.00,SCT,,0.00,WeatherDisplay:10.37,2013-03-11 05:10:00,
2013-03-10 22:11:00,55.4,34.9,30.29,SW,216,0.0,0.0,46,0.00,SCT,,0.00,WeatherDisplay:10.37,2013-03-11 05:11:00,
2013-03-10 22:12:00,55.5,35.1,30.29,SW,216,0.0,1.0,46,0.00,SCT,,0.00,WeatherDisplay:10.37,2013-03-11 05:12:00,
2013-03-10 22:15:00,55.3,35.4,30.29,SW,216,0.0,0.0,47,0.00,SCT,,0.00,WeatherDisplay:10.37,2013-03-11 05:15:00,
2013-03-10 22:16:00,55.3,35.4,30.29,SW,216,0.0,0.0,47,0.00,SCT,,0.00,WeatherDisplay:10.37,2013-03-11 05:16:00,
2013-03-10 22:17:00,55.3,35.4,30.29,SW,216,0.0,0.0,47,0.00,SCT,,0.00,WeatherDisplay:10.37,2013-03-11 05:17:00,
2013-03-10 22:18:00,55.2,35.3,30.29,SW,216,0.0,0.0,47,0.00,SCT,,0.00,WeatherDisplay:10.37,2013-03-11 05:18:00,
2013-03-10 22:21:00,55.2,35.3,30.29,SW,216,0.0,0.0,47,0.00,SCT,,0.00,WeatherDisplay:10.37,2013-03-11 05:21:00,
2013-03-10 22:22:00,55.1,35.2,30.29,SW,216,0.0,0.0,47,0.00,SCT,,0.00,WeatherDisplay:10.37,2013-03-11 05:22:00,
2013-03-10 22:23:00,55.1,35.2,30.29,SW,216,0.0,0.0,47,0.00,SCT,,0.00,WeatherDisplay:10.37,2013-03-11 05:23:00,
2013-03-10 22:27:00,55.1,35.2,30.29,SW,216,0.0,0.0,47,0.00,SCT,,0.00,WeatherDisplay:10.37,2013-03-11 05:27:00,
2013-03-10 22:28:00,55.1,35.2,30.29,SW,216,0.0,0.0,47,0.00,SCT,,0.00,WeatherDisplay:10.37,2013-03-11 05:28:00,
2013-03-10 22:29:00,54.8,35.5,30.29,SW,216,0.0,0.0,48,0.00,SCT,,0.00,WeatherDisplay:10.37,2013-03-11 05:29:00,
2013-03-10 22:32:00,54.7,35.4,30.29,SW,216,0.0,0.0,48,0.00,SCT,,0.00,WeatherDisplay:10.37,2013-03-11 05:32:00,
2013-03-10 22:34:00,54.7,35.4,30.29,SW,216,0.0,0.0,48,0.00,SCT,,0.00,WeatherDisplay:10.37,2013-03-11 05:34:00,
2013-03-10 22:35:00,54.6,35.3,30.29,SW,216,0.0,0.0,48,0.00,SCT,,0.00,WeatherDisplay:10.37,2013-03-11 05:35:00,
2013-03-10 22:38:00,54.3,35.5,30.29,SW,216,0.0,0.0,49,0.00,SCT,,0.00,WeatherDisplay:10.37,2013-03-11 05:38:00,
2013-03-10 22:39:00,54.3,35.5,30.29,SW,216,0.0,0.0,49,0.00,SCT,,0.00,WeatherDisplay:10.37,2013-03-11 05:39:00,
2013-03-10 22:40:00,54.3,35.0,30.29,SW,216,0.0,0.0,48,0.00,SCT,,0.00,WeatherDisplay:10.37,2013-03-11 05:40:00,
2013-03-10 22:44:00,54.3,35.0,30.29,SW,216,0.0,0.0,48,0.00,SCT,,0.00,WeatherDisplay:10.37,2013-03-11 05:44:00,
2013-03-10 22:45:00,54.2,35.4,30.29,SW,216,0.0,0.0,49,0.00,SCT,,0.00,WeatherDisplay:10.37,2013-03-11 05:45:00,
2013-03-10 22:47:00,54.1,35.3,30.29,SW,216,0.0,0.0,49,0.00,SCT,,0.00,WeatherDisplay:10.37,2013-03-11 05:47:00,
2013-03-10 22:49:00,54.0,35.3,30.29,SW,216,0.0,0.0,49,0.00,SCT,,0.00,WeatherDisplay:10.37,2013-03-11 05:49:00,
2013-03-10 22:50:00,54.0,35.3,30.29,SW,216,0.0,0.0,49,0.00,SCT,,0.00,WeatherDisplay:10.37,2013-03-11 05:50:00,
2013-03-10 22:51:00,53.9,35.7,30.29,SW,216,0.0,0.0,50,0.00,SCT,,0.00,WeatherDisplay:10.37,2013-03-11 05:51:00,
2013-03-10 22:52:00,53.9,35.7,30.29,SW,216,0.0,0.0,50,0.00,SCT,,0.00,WeatherDisplay:10.37,2013-03-11 05:52:00,
2013-03-10 22:54:00,53.8,35.6,30.29,SW,216,0.0,0.0,50,0.00,SCT,,0.00,WeatherDisplay:10.37,2013-03-11 05:54:00,
2013-03-10 22:55:00,53.8,35.6,30.29,SW,216,0.0,1.0,50,0.00,SCT,,0.00,WeatherDisplay:10.37,2013-03-11 05:55:00,
2013-03-10 22:56:00,53.7,35.5,30.29,SW,216,0.0,0.0,50,0.00,SCT,,0.00,WeatherDisplay:10.37,2013-03-11 05:56:00,
2013-03-10 22:57:00,53.7,35.5,30.29,SW,216,0.0,0.0,50,0.00,SCT,,0.00,WeatherDisplay:10.37,2013-03-11 05:57:00,
2013-03-10 23:00:00,53.5,35.3,30.29,SW,216,0.0,0.0,50,0.00,SCT,,0.00,WeatherDisplay:10.37,2013-03-11 06:00:00,
2013-03-10 23:02:00,53.4,35.7,30.29,SW,216,0.0,0.0,51,0.00,SCT,,0.00,WeatherDisplay:10.37,2013-03-11 06:02:00,
2013-03-10 23:03:00,53.4,35.7,30.29,SW,216,0.0,0.0,51,0.00,SCT,,0.00,WeatherDisplay:10.37,2013-03-11 06:03:00,
2013-03-10 23:05:00,53.3,35.6,30.29,SW,216,0.0,0.0,51,0.00,SCT,,0.00,WeatherDisplay:10.37,2013-03-11 06:05:00,
2013-03-10 23:07:00,53.3,35.6,30.29,SW,216,0.0,0.0,51,0.00,SCT,,0.00,WeatherDisplay:10.37,2013-03-11 06:07:00,
2013-03-10 23:08:00,53.2,35.5,30.29,SW,216,0.0,0.0,51,0.00,SCT,,0.00,WeatherDisplay:10.37,2013-03-11 06:08:00,
2013-03-10 23:12:00,53.1,35.4,30.29,SW,216,0.0,0.0,51,0.00,SCT,,0.00,WeatherDisplay:10.37,2013-03-11 06:12:00,
2013-03-10 23:13:00,53.0,35.3,30.29,SW,216,0.0,0.0,51,0.00,SCT,,0.00,WeatherDisplay:10.37,2013-03-11 06:13:00,
2013-03-10 23:14:00,53.0,35.3,30.29,SW,216,0.0,0.0,51,0.00,SCT,,0.00,WeatherDisplay:10.37,2013-03-11 06:14:00,
2013-03-10 23:15:00,52.9,35.2,30.29,SW,216,0.0,0.0,51,0.00,SCT,,0.00,WeatherDisplay:10.37,2013-03-11 06:15:00,
2013-03-10 23:17:00,52.8,35.2,30.29,SW,216,0.0,0.0,51,0.00,SCT,,0.00,WeatherDisplay:10.37,2013-03-11 06:17:00,
2013-03-10 23:19:00,52.8,35.6,30.29,SW,216,0.0,0.0,52,0.00,SCT,,0.00,WeatherDisplay:10.37,2013-03-11 06:19:00,
2013-03-10 23:20:00,52.7,35.6,30.29,SW,216,0.0,0.0,52,0.00,SCT,,0.00,WeatherDisplay:10.37,2013-03-11 06:20:00,
2013-03-10 23:22:00,52.6,35.5,30.29,SW,216,0.0,0.0,52,0.00,SCT,,0.00,WeatherDisplay:10.37,2013-03-11 06:22:00,
2013-03-10 23:25:00,52.5,35.4,30.29,SW,216,0.0,0.0,52,0.00,SCT,,0.00,WeatherDisplay:10.37,2013-03-11 06:25:00,
2013-03-10 23:26:00,52.5,35.4,30.29,SW,216,0.0,0.0,52,0.00,SCT,,0.00,WeatherDisplay:10.37,2013-03-11 06:26:00,
2013-03-10 23:29:00,52.5,35.4,30.29,SW,216,0.0,0.0,52,0.00,SCT,,0.00,WeatherDisplay:10.37,2013-03-11 06:29:00,
2013-03-10 23:30:00,52.5,35.4,30.29,SW,216,0.0,0.0,52,0.00,SCT,,0.00,WeatherDisplay:10.37,2013-03-11 06:30:00,
2013-03-10 23:31:00,52.4,35.3,30.29,SW,216,0.0,0.0,52,0.00,SCT,,0.00,WeatherDisplay:10.37,2013-03-11 06:31:00,
2013-03-10 23:35:00,52.3,35.2,30.28,SW,216,0.0,0.0,52,0.00,SCT,,0.00,WeatherDisplay:10.37,2013-03-11 06:35:00,
2013-03-10 23:36:00,52.3,35.7,30.29,SW,216,0.0,0.0,53,0.00,SCT,,0.00,WeatherDisplay:10.37,2013-03-11 06:36:00,
2013-03-10 23:37:00,52.2,35.6,30.29,SW,216,0.0,0.0,53,0.00,SCT,,0.00,WeatherDisplay:10.37,2013-03-11 06:37:00,
2013-03-10 23:40:00,52.1,35.5,30.29,SW,216,0.0,0.0,53,0.00,SCT,,0.00,WeatherDisplay:10.37,2013-03-11 06:40:00,
2013-03-10 23:41:00,52.0,35.4,30.29,SW,216,0.0,0.0,53,0.00,SCT,,0.00,WeatherDisplay:10.37,2013-03-11 06:41:00,
2013-03-10 23:43:00,52.0,35.4,30.29,SW,216,0.0,0.0,53,0.00,SCT,,0.00,WeatherDisplay:10.37,2013-03-11 06:43:00,
2013-03-10 23:45:00,51.9,35.3,30.29,SW,216,0.0,0.0,53,0.00,SCT,,0.00,WeatherDisplay:10.37,2013-03-11 06:45:00,
2013-03-10 23:46:00,51.9,35.3,30.28,SW,216,0.0,0.0,53,0.00,SCT,,0.00,WeatherDisplay:10.37,2013-03-11 06:46:00,
2013-03-10 23:47:00,51.8,35.2,30.29,SW,216,0.0,0.0,53,0.00,SCT,,0.00,WeatherDisplay:10.37,2013-03-11 06:47:00,
2013-03-10 23:48:00,51.8,35.2,30.28,SW,216,0.0,0.0,53,0.00,SCT,,0.00,WeatherDisplay:10.37,2013-03-11 06:48:00,
2013-03-10 23:51:00,51.7,35.1,30.28,SW,216,0.0,0.0,53,0.00,SCT,,0.00,WeatherDisplay:10.37,2013-03-11 06:51:00,
2013-03-10 23:52:00,51.7,35.1,30.28,SW,216,0.0,0.0,53,0.00,SCT,,0.00,WeatherDisplay:10.37,2013-03-11 06:52:00,
2013-03-10 23:53:00,51.6,35.0,30.28,SW,216,0.0,0.0,53,0.00,SCT,,0.00,WeatherDisplay:10.37,2013-03-11 06:53:00,
2013-03-10 23:56:00,51.5,35.4,30.28,SW,216,0.0,0.0,54,0.00,SCT,,0.00,WeatherDisplay:10.37,2013-03-11 06:56:00,
2013-03-10 23:57:00,51.5,35.4,30.28,SW,216,0.0,0.0,54,0.00,SCT,,0.00,WeatherDisplay:10.37,2013-03-11 06:57:00,
2013-03-10 23:59:00,51.4,35.3,30.28,SW,216,1.2,0.0,54,0.00,SCT,,0.00,WeatherDisplay:10.37,2013-03-11 06:59:00,